Wetterdaten: Mittwoch, 26.08.2020
Datum Zeit Temp. Aussen Temp. o. S. Temp +5cm Feuchte Auss Luftdruck Regen Sonnenschein Regendauer Solar Windben Empfang
26.08.2020 00:00 18,8 C 17,8 C 17,2 C 86 % 1003,5 hPa 0,0 l/m 0 min 0 min 0 W/m 6,4 km/h (2 Bft) 100,00 %
26.08.2020 00:02 18,8 C 17,8 C 17,2 C 86 % 1003,5 hPa 0,0 l/m 0 min 0 min 0 W/m 25,7 km/h (4 Bft) 94,29 %
26.08.2020 00:04 18,8 C 17,8 C 17,2 C 86 % 1003,4 hPa 0,0 l/m 0 min 0 min 0 W/m 19,3 km/h (3 Bft) 100,00 %
26.08.2020 00:08 18,8 C 17,8 C 17,2 C 85 % 1003,5 hPa 0,0 l/m 0 min 0 min 0 W/m 19,3 km/h (3 Bft) 100,00 %
26.08.2020 00:10 18,7 C 17,8 C 17,2 C 85 % 1003,5 hPa 0,0 l/m 0 min 0 min 0 W/m 22,5 km/h (4 Bft) 100,00 %
26.08.2020 00:12 18,7 C 17,8 C 17,2 C 85 % 1003,5 hPa 0,0 l/m 0 min 0 min 0 W/m 19,3 km/h (3 Bft) 95,74 %
26.08.2020 00:14 18,7 C 17,8 C 17,2 C 85 % 1003,5 hPa 0,0 l/m 0 min 0 min 0 W/m 22,5 km/h (4 Bft) 100,00 %
26.08.2020 00:16 18,7 C 17,8 C 17,2 C 85 % 1003,4 hPa 0,0 l/m 0 min 0 min 0 W/m 12,9 km/h (3 Bft) 95,74 %
26.08.2020 00:18 18,7 C 17,8 C 17,2 C 85 % 1003,5 hPa 0,0 l/m 0 min 0 min 0 W/m 25,7 km/h (4 Bft) 97,87 %
26.08.2020 00:20 18,7 C 17,8 C 17,2 C 85 % 1003,4 hPa 0,0 l/m 0 min 0 min 0 W/m 9,7 km/h (2 Bft) 95,65 %
26.08.2020 00:22 18,7 C 17,8 C 17,2 C 85 % 1003,4 hPa 0,0 l/m 0 min 0 min 0 W/m 22,5 km/h (4 Bft) 95,74 %
26.08.2020 00:24 18,7 C 17,8 C 17,2 C 85 % 1003,5 hPa 0,0 l/m 0 min 0 min 0 W/m 19,3 km/h (3 Bft) 97,87 %
26.08.2020 00:26 18,7 C 17,8 C 17,2 C 85 % 1003,5 hPa 0,0 l/m 0 min 0 min 0 W/m 19,3 km/h (3 Bft) 97,87 %
26.08.2020 00:28 18,7 C 17,8 C 17,2 C 85 % 1003,5 hPa 0,0 l/m 0 min 0 min 0 W/m 25,7 km/h (4 Bft) 97,87 %
26.08.2020 00:30 18,7 C 17,8 C 17,2 C 85 % 1003,3 hPa 0,0 l/m 0 min 0 min 0 W/m 3,2 km/h (1 Bft) 96,30 %
26.08.2020 00:32 18,7 C 17,8 C 17,2 C 85 % 1003,4 hPa 0,0 l/m 0 min 0 min 0 W/m 16,1 km/h (3 Bft) 95,74 %
26.08.2020 00:34 18,6 C 17,8 C 17,2 C 84 % 1003,4 hPa 0,0 l/m 0 min 0 min 0 W/m 22,5 km/h (4 Bft) 97,87 %
26.08.2020 00:36 18,6 C 17,8 C 17,2 C 84 % 1003,4 hPa 0,0 l/m 0 min 0 min 0 W/m 29,0 km/h (5 Bft) 95,65 %
26.08.2020 00:38 18,6 C 17,8 C 17,2 C 84 % 1003,3 hPa 0,0 l/m 0 min 0 min 0 W/m 22,5 km/h (4 Bft) 97,87 %
26.08.2020 00:40 18,6 C 17,8 C 17,2 C 84 % 1003,4 hPa 0,0 l/m 0 min 0 min 0 W/m 16,1 km/h (3 Bft) 97,87 %
26.08.2020 00:42 18,6 C 17,8 C 17,2 C 84 % 1003,3 hPa 0,0 l/m 0 min 0 min 0 W/m 16,1 km/h (3 Bft) 97,87 %
26.08.2020 00:44 18,6 C 17,8 C 17,2 C 84 % 1003,4 hPa 0,0 l/m 0 min 0 min 0 W/m 29,0 km/h (5 Bft) 97,87 %
26.08.2020 00:46 18,6 C 17,8 C 17,2 C 84 % 1003,3 hPa 0,0 l/m 0 min 0 min 0 W/m 35,4 km/h (5 Bft) 95,74 %
26.08.2020 00:48 18,6 C 17,8 C 17,2 C 84 % 1003,3 hPa 0,0 l/m 0 min 0 min 0 W/m 16,1 km/h (3 Bft) 95,65 %
26.08.2020 00:50 18,6 C 17,8 C 17,2 C 84 % 1003,4 hPa 0,0 l/m 0 min 0 min 0 W/m 22,5 km/h (4 Bft) 97,87 %
26.08.2020 00:52 18,6 C 17,8 C 17,2 C 84 % 1003,4 hPa 0,0 l/m 0 min 0 min 0 W/m 22,5 km/h (4 Bft) 95,74 %
26.08.2020 00:54 18,6 C 17,2 C 17,2 C 84 % 1003,5 hPa 0,0 l/m 0 min 0 min 0 W/m 6,4 km/h (2 Bft) 97,87 %
26.08.2020 00:56 18,6 C 17,2 C 16,7 C 84 % 1003,4 hPa 0,0 l/m 0 min 0 min 0 W/m 6,4 km/h (2 Bft) 97,87 %
26.08.2020 00:58 18,6 C 17,2 C 16,7 C 84 % 1003,5 hPa 0,0 l/m 0 min 0 min 0 W/m 12,9 km/h (3 Bft) 97,87 %
26.08.2020 01:00 18,6 C 17,2 C 16,7 C 84 % 1003,5 hPa 0,0 l/m 0 min 0 min 0 W/m 22,5 km/h (4 Bft) 97,83 %
26.08.2020 01:02 18,6 C 17,2 C 16,7 C 84 % 1003,5 hPa 0,0 l/m 0 min 0 min 0 W/m 19,3 km/h (3 Bft) 97,87 %
26.08.2020 01:04 18,5 C 17,2 C 16,7 C 84 % 1003,6 hPa 0,0 l/m 0 min 0 min 0 W/m 6,4 km/h (2 Bft) 97,87 %
26.08.2020 01:06 18,5 C 17,2 C 16,7 C 84 % 1003,6 hPa 0,0 l/m 0 min 0 min 0 W/m 19,3 km/h (3 Bft) 100,00 %
26.08.2020 01:08 18,4 C 17,2 C 16,7 C 85 % 1003,6 hPa 0,0 l/m 0 min 0 min 0 W/m 16,1 km/h (3 Bft) 100,00 %
26.08.2020 01:10 18,4 C 17,2 C 16,7 C 85 % 1003,6 hPa 0,0 l/m 0 min 0 min 0 W/m 16,1 km/h (3 Bft) 100,00 %
26.08.2020 01:12 18,4 C 17,2 C 16,7 C 85 % 1003,5 hPa 0,0 l/m 0 min 0 min 0 W/m 3,2 km/h (1 Bft) 100,00 %
26.08.2020 01:14 18,4 C 17,2 C 16,7 C 85 % 1003,5 hPa 0,0 l/m 0 min 0 min 0 W/m 19,3 km/h (3 Bft) 97,87 %
26.08.2020 01:16 18,4 C 17,2 C 16,7 C 85 % 1003,5 hPa 0,0 l/m 0 min 0 min 0 W/m 32,2 km/h (5 Bft) 100,00 %
26.08.2020 01:18 18,3 C 17,2 C 16,7 C 85 % 1003,4 hPa 0,0 l/m 0 min 0 min 0 W/m 32,2 km/h (5 Bft) 100,00 %
26.08.2020 01:20 18,3 C 17,2 C 16,7 C 85 % 1003,5 hPa 0,0 l/m 0 min 0 min 0 W/m 22,5 km/h (4 Bft) 100,00 %
26.08.2020 01:22 18,3 C 17,2 C 16,7 C 85 % 1003,4 hPa 0,0 l/m 0 min 0 min 0 W/m 12,9 km/h (3 Bft) 100,00 %
26.08.2020 01:24 18,3 C 17,2 C 16,7 C 85 % 1003,5 hPa 0,0 l/m 0 min 0 min 0 W/m 35,4 km/h (5 Bft) 100,00 %
26.08.2020 01:26 18,2 C 17,2 C 16,7 C 85 % 1003,5 hPa 0,0 l/m 0 min 0 min 0 W/m 22,5 km/h (4 Bft) 97,87 %
26.08.2020 01:28 18,2 C 17,2 C 16,7 C 85 % 1003,5 hPa 0,0 l/m 0 min 0 min 0 W/m 16,1 km/h (3 Bft) 100,00 %
26.08.2020 01:30 18,2 C 17,2 C 16,7 C 85 % 1003,5 hPa 0,0 l/m 0 min 0 min 0 W/m 25,7 km/h (4 Bft) 97,87 %
26.08.2020 01:32 18,2 C 17,2 C 16,7 C 85 % 1003,6 hPa 0,0 l/m 0 min 0 min 0 W/m 16,1 km/h (3 Bft) 100,00 %
26.08.2020 01:34 18,2 C 17,2 C 16,7 C 85 % 1003,6 hPa 0,0 l/m 0 min 0 min 0 W/m 3,2 km/h (1 Bft) 100,00 %
26.08.2020 01:36 18,2 C 17,2 C 16,7 C 85 % 1003,6 hPa 0,0 l/m 0 min 0 min 0 W/m 25,7 km/h (4 Bft) 100,00 %
26.08.2020 01:38 18,2 C 17,2 C 16,7 C 85 % 1003,6 hPa 0,0 l/m 0 min 0 min 0 W/m 19,3 km/h (3 Bft) 100,00 %
26.08.2020 01:40 18,2 C 17,2 C 16,7 C 85 % 1003,7 hPa 0,0 l/m 0 min 0 min 0 W/m 19,3 km/h (3 Bft) 100,00 %
26.08.2020 01:42 18,1 C 17,2 C 16,7 C 85 % 1003,7 hPa 0,0 l/m 0 min 0 min 0 W/m 29,0 km/h (5 Bft) 97,87 %
26.08.2020 01:44 18,1 C 17,2 C 16,7 C 85 % 1003,5 hPa 0,0 l/m 0 min 0 min 0 W/m 16,1 km/h (3 Bft) 97,87 %
26.08.2020 01:46 18,1 C 17,2 C 16,7 C 85 % 1003,6 hPa 0,0 l/m 0 min 0 min 0 W/m 32,2 km/h (5 Bft) 93,62 %
26.08.2020 01:48 18,1 C 17,2 C 16,7 C 85 % 1003,6 hPa 0,0 l/m 0 min 0 min 0 W/m 29,0 km/h (5 Bft) 97,87 %
26.08.2020 01:50 18,1 C 17,2 C 16,7 C 85 % 1003,6 hPa 0,0 l/m 0 min 0 min 0 W/m 22,5 km/h (4 Bft) 97,83 %
26.08.2020 01:52 18,1 C 17,2 C 16,7 C 85 % 1003,5 hPa 0,0 l/m 0 min 0 min 0 W/m 16,1 km/h (3 Bft) 95,74 %
26.08.2020 01:54 18,1 C 16,7 C 16,7 C 85 % 1003,6 hPa 0,0 l/m 0 min 0 min 0 W/m 16,1 km/h (3 Bft) 97,87 %
26.08.2020 01:56 18,1 C 17,2 C 16,7 C 85 % 1003,5 hPa 0,0 l/m 0 min 0 min 0 W/m 35,4 km/h (5 Bft) 97,87 %
26.08.2020 01:58 18,1 C 17,2 C 16,7 C 85 % 1003,5 hPa 0,0 l/m 0 min 0 min 0 W/m 25,7 km/h (4 Bft) 97,87 %
26.08.2020 02:00 18,1 C 17,2 C 16,7 C 85 % 1003,5 hPa 0,0 l/m 0 min 0 min 0 W/m 32,2 km/h (5 Bft) 95,74 %
26.08.2020 02:02 18,1 C 17,2 C 16,7 C 85 % 1003,5 hPa 0,0 l/m 0 min 0 min 0 W/m 16,1 km/h (3 Bft) 93,48 %
26.08.2020 02:04 18,1 C 17,2 C 16,7 C 85 % 1003,6 hPa 0,0 l/m 0 min 0 min 0 W/m 19,3 km/h (3 Bft) 93,62 %
26.08.2020 02:06 18,1 C 17,2 C 16,7 C 85 % 1003,5 hPa 0,0 l/m 0 min 0 min 0 W/m 16,1 km/h (3 Bft) 95,74 %
26.08.2020 02:08 18,1 C 17,2 C 16,7 C 85 % 1003,5 hPa 0,0 l/m 0 min 0 min 0 W/m 29,0 km/h (5 Bft) 95,74 %
26.08.2020 02:10 18,1 C 17,2 C 16,7 C 85 % 1003,5 hPa 0,0 l/m 0 min 0 min 0 W/m 19,3 km/h (3 Bft) 95,74 %
26.08.2020 02:12 18,1 C 17,2 C 16,7 C 84 % 1003,4 hPa 0,0 l/m 0 min 0 min 0 W/m 29,0 km/h (5 Bft) 95,74 %
26.08.2020 02:14 18,1 C 17,2 C 16,7 C 84 % 1003,4 hPa 0,0 l/m 0 min 0 min 0 W/m 32,2 km/h (5 Bft) 95,65 %
26.08.2020 02:16 18,0 C 17,2 C 16,7 C 84 % 1003,3 hPa 0,0 l/m 0 min 0 min 0 W/m 25,7 km/h (4 Bft) 95,74 %
26.08.2020 02:18 18,0 C 17,2 C 16,7 C 83 % 1003,2 hPa 0,0 l/m 0 min 0 min 0 W/m 41,8 km/h (6 Bft) 93,62 %
26.08.2020 02:20 18,1 C 17,2 C 16,7 C 82 % 1003,3 hPa 0,0 l/m 0 min 0 min 0 W/m 29,0 km/h (5 Bft) 93,62 %
26.08.2020 02:22 18,1 C 17,2 C 16,7 C 81 % 1003,2 hPa 0,0 l/m 0 min 0 min 0 W/m 29,0 km/h (5 Bft) 95,74 %
26.08.2020 02:24 18,1 C 17,2 C 16,7 C 80 % 1003,1 hPa 0,0 l/m 0 min 0 min 0 W/m 12,9 km/h (3 Bft) 95,74 %
26.08.2020 02:26 18,1 C 17,2 C 16,7 C 80 % 1003,1 hPa 0,0 l/m 0 min 0 min 0 W/m 22,5 km/h (4 Bft) 95,65 %
26.08.2020 02:28 18,1 C 17,2 C 16,7 C 80 % 1003,2 hPa 0,0 l/m 0 min 0 min 0 W/m 19,3 km/h (3 Bft) 97,87 %
26.08.2020 02:30 18,1 C 17,8 C 16,7 C 79 % 1003,2 hPa 0,0 l/m 0 min 0 min 0 W/m 32,2 km/h (5 Bft) 97,87 %
26.08.2020 02:32 18,2 C 17,8 C 16,7 C 79 % 1003,2 hPa 0,0 l/m 0 min 0 min 0 W/m 45,1 km/h (6 Bft) 97,87 %
26.08.2020 02:34 18,2 C 17,8 C 17,2 C 79 % 1003,0 hPa 0,0 l/m 0 min 0 min 0 W/m 35,4 km/h (5 Bft) 97,87 %
26.08.2020 02:36 18,2 C 17,8 C 17,2 C 79 % 1003,1 hPa 0,0 l/m 0 min 0 min 0 W/m 22,5 km/h (4 Bft) 97,83 %
26.08.2020 02:38 18,3 C 17,8 C 17,2 C 79 % 1003,0 hPa 0,0 l/m 0 min 0 min 0 W/m 32,2 km/h (5 Bft) 97,87 %
26.08.2020 02:40 18,3 C 17,2 C 17,2 C 79 % 1003,0 hPa 0,0 l/m 0 min 0 min 0 W/m 29,0 km/h (5 Bft) 97,87 %
26.08.2020 02:42 18,3 C 17,2 C 16,7 C 79 % 1003,0 hPa 0,0 l/m 0 min 0 min 0 W/m 35,4 km/h (5 Bft) 97,87 %
26.08.2020 02:44 18,3 C 17,2 C 16,7 C 78 % 1003,1 hPa 0,0 l/m 0 min 0 min 0 W/m 25,7 km/h (4 Bft) 97,87 %
26.08.2020 02:46 18,3 C 17,2 C 16,7 C 78 % 1003,3 hPa 0,0 l/m 0 min 0 min 0 W/m 35,4 km/h (5 Bft) 95,74 %
26.08.2020 02:48 18,3 C 17,2 C 16,7 C 78 % 1003,1 hPa 0,0 l/m 0 min 0 min 0 W/m 22,5 km/h (4 Bft) 95,65 %
26.08.2020 02:50 18,3 C 17,2 C 16,7 C 78 % 1003,1 hPa 0,0 l/m 0 min 0 min 0 W/m 19,3 km/h (3 Bft) 95,74 %
26.08.2020 02:52 18,3 C 17,2 C 16,7 C 78 % 1003,1 hPa 0,0 l/m 0 min 0 min 0 W/m 35,4 km/h (5 Bft) 95,74 %
26.08.2020 02:54 18,3 C 17,8 C 17,2 C 78 % 1003,1 hPa 0,0 l/m 0 min 0 min 0 W/m 38,6 km/h (5 Bft) 95,74 %
26.08.2020 02:56 18,3 C 17,8 C 17,2 C 78 % 1003,0 hPa 0,0 l/m 0 min 0 min 0 W/m 38,6 km/h (5 Bft) 97,87 %
26.08.2020 02:58 18,3 C 17,8 C 17,2 C 77 % 1003,0 hPa 0,0 l/m 0 min 0 min 0 W/m 45,1 km/h (6 Bft) 97,87 %
26.08.2020 03:00 18,3 C 17,8 C 17,2 C 77 % 1002,9 hPa 0,0 l/m 0 min 0 min 0 W/m 29,0 km/h (5 Bft) 97,83 %
26.08.2020 03:02 18,4 C 17,8 C 17,2 C 77 % 1003,0 hPa 0,0 l/m 0 min 0 min 0 W/m 35,4 km/h (5 Bft) 100,00 %
26.08.2020 03:04 18,4 C 17,8 C 17,2 C 76 % 1002,9 hPa 0,0 l/m 0 min 0 min 0 W/m 41,8 km/h (6 Bft) 95,74 %
26.08.2020 03:06 18,4 C 17,8 C 17,2 C 76 % 1002,9 hPa 0,0 l/m 0 min 0 min 0 W/m 22,5 km/h (4 Bft) 97,87 %
26.08.2020 03:08 18,4 C 17,2 C 16,7 C 76 % 1002,9 hPa 0,0 l/m 0 min 0 min 0 W/m 25,7 km/h (4 Bft) 100,00 %
26.08.2020 03:10 18,4 C 17,2 C 16,7 C 76 % 1002,9 hPa 0,0 l/m 0 min 0 min 0 W/m 25,7 km/h (4 Bft) 100,00 %
26.08.2020 03:12 18,4 C 17,2 C 16,7 C 76 % 1003,0 hPa 0,0 l/m 0 min 0 min 0 W/m 22,5 km/h (4 Bft) 97,83 %
26.08.2020 03:14 18,4 C 17,8 C 17,2 C 76 % 1003,0 hPa 0,0 l/m 0 min 0 min 0 W/m 25,7 km/h (4 Bft) 97,87 %
26.08.2020 03:16 18,4 C 17,8 C 17,2 C 76 % 1003,0 hPa 0,0 l/m 0 min 0 min 0 W/m 35,4 km/h (5 Bft) 97,87 %
26.08.2020 03:18 18,5 C 17,8 C 17,2 C 76 % 1003,1 hPa 0,0 l/m 0 min 0 min 0 W/m 32,2 km/h (5 Bft) 97,87 %
26.08.2020 03:20 18,5 C 17,8 C 17,2 C 76 % 1003,1 hPa 0,0 l/m 0 min 0 min 0 W/m 25,7 km/h (4 Bft) 95,74 %
26.08.2020 03:22 18,6 C 17,8 C 17,2 C 76 % 1003,0 hPa 0,0 l/m 0 min 0 min 0 W/m 29,0 km/h (5 Bft) 97,87 %
26.08.2020 03:24 18,6 C 17,8 C 17,2 C 76 % 1003,0 hPa 0,0 l/m 0 min 0 min 0 W/m 38,6 km/h (5 Bft) 97,83 %
26.08.2020 03:26 18,6 C 17,8 C 17,2 C 76 % 1003,0 hPa 0,0 l/m 0 min 0 min 0 W/m 35,4 km/h (5 Bft) 95,74 %
26.08.2020 03:28 18,6 C 17,8 C 17,2 C 76 % 1003,0 hPa 0,0 l/m 0 min 0 min 0 W/m 35,4 km/h (5 Bft) 95,74 %
26.08.2020 03:30 18,6 C 17,8 C 17,2 C 76 % 1002,9 hPa 0,0 l/m 0 min 0 min 0 W/m 29,0 km/h (5 Bft) 97,87 %
26.08.2020 03:32 18,7 C 17,8 C 17,2 C 76 % 1003,1 hPa 0,0 l/m 0 min 0 min 0 W/m 45,1 km/h (6 Bft) 95,74 %
26.08.2020 03:34 18,7 C 17,8 C 17,2 C 76 % 1003,0 hPa 0,0 l/m 0 min 0 min 0 W/m 29,0 km/h (5 Bft) 97,83 %
26.08.2020 03:36 18,7 C 17,8 C 17,2 C 76 % 1003,1 hPa 0,0 l/m 0 min 0 min 0 W/m 25,7 km/h (4 Bft) 97,87 %
26.08.2020 03:38 18,7 C 17,8 C 17,2 C 76 % 1002,9 hPa 0,0 l/m 0 min 0 min 0 W/m 25,7 km/h (4 Bft) 97,87 %
26.08.2020 03:40 18,7 C 17,8 C 17,2 C 76 % 1003,0 hPa 0,0 l/m 0 min 0 min 0 W/m 19,3 km/h (3 Bft) 97,87 %
26.08.2020 03:42 18,7 C 17,8 C 17,2 C 76 % 1002,8 hPa 0,0 l/m 0 min 0 min 0 W/m 32,2 km/h (5 Bft) 97,87 %
26.08.2020 03:44 18,7 C 17,8 C 17,2 C 76 % 1002,9 hPa 0,0 l/m 0 min 0 min 0 W/m 25,7 km/h (4 Bft) 97,87 %
26.08.2020 03:46 18,7 C 17,8 C 17,2 C 76 % 1002,9 hPa 0,0 l/m 0 min 0 min 0 W/m 22,5 km/h (4 Bft) 97,83 %
26.08.2020 03:48 18,7 C 17,8 C 17,2 C 76 % 1003,0 hPa 0,0 l/m 0 min 0 min 0 W/m 29,0 km/h (5 Bft) 97,87 %
26.08.2020 03:50 18,7 C 17,8 C 17,2 C 75 % 1003,0 hPa 0,0 l/m 0 min 0 min 0 W/m 38,6 km/h (5 Bft) 97,87 %
26.08.2020 03:52 18,7 C 17,8 C 17,2 C 75 % 1002,9 hPa 0,0 l/m 0 min 0 min 0 W/m 32,2 km/h (5 Bft) 97,87 %
26.08.2020 03:54 18,7 C 17,8 C 17,2 C 75 % 1002,9 hPa 0,0 l/m 0 min 0 min 0 W/m 38,6 km/h (5 Bft) 95,74 %
26.08.2020 03:56 18,7 C 17,8 C 17,2 C 75 % 1002,9 hPa 0,0 l/m 0 min 0 min 0 W/m 19,3 km/h (3 Bft) 97,87 %
26.08.2020 03:58 18,7 C 17,8 C 17,2 C 75 % 1002,9 hPa 0,0 l/m 0 min 0 min 0 W/m 12,9 km/h (3 Bft) 97,83 %
26.08.2020 04:00 18,7 C 17,8 C 17,2 C 75 % 1002,9 hPa 0,0 l/m 0 min 0 min 0 W/m 25,7 km/h (4 Bft) 100,00 %
26.08.2020 04:02 18,7 C 17,8 C 17,2 C 75 % 1002,9 hPa 0,0 l/m 0 min 0 min 0 W/m 29,0 km/h (5 Bft) 100,00 %
26.08.2020 04:04 18,6 C 17,2 C 17,2 C 76 % 1002,9 hPa 0,0 l/m 0 min 0 min 0 W/m 22,5 km/h (4 Bft) 97,87 %
26.08.2020 04:06 18,6 C 17,8 C 17,2 C 76 % 1002,8 hPa 0,0 l/m 0 min 0 min 0 W/m 35,4 km/h (5 Bft) 100,00 %
26.08.2020 04:08 18,6 C 17,8 C 17,2 C 76 % 1002,8 hPa 0,0 l/m 0 min 0 min 0 W/m 38,6 km/h (5 Bft) 100,00 %
26.08.2020 04:10 18,6 C 17,8 C 17,2 C 76 % 1002,8 hPa 0,0 l/m 0 min 0 min 0 W/m 29,0 km/h (5 Bft) 95,74 %
26.08.2020 04:12 18,6 C 17,2 C 17,2 C 76 % 1002,9 hPa 0,0 l/m 0 min 0 min 0 W/m 32,2 km/h (5 Bft) 100,00 %
26.08.2020 04:14 18,6 C 17,2 C 16,7 C 76 % 1002,9 hPa 0,0 l/m 0 min 0 min 0 W/m 22,5 km/h (4 Bft) 100,00 %
26.08.2020 04:16 18,5 C 17,2 C 16,7 C 76 % 1002,9 hPa 0,0 l/m 0 min 0 min 0 W/m 32,2 km/h (5 Bft) 97,87 %
26.08.2020 04:18 18,5 C 17,2 C 16,7 C 76 % 1003,0 hPa 0,0 l/m 0 min 0 min 0 W/m 32,2 km/h (5 Bft) 100,00 %
26.08.2020 04:20 18,5 C 17,2 C 16,7 C 76 % 1002,9 hPa 0,0 l/m 0 min 0 min 0 W/m 19,3 km/h (3 Bft) 100,00 %
26.08.2020 04:22 18,4 C 17,8 C 16,7 C 76 % 1002,9 hPa 0,0 l/m 0 min 0 min 0 W/m 32,2 km/h (5 Bft) 100,00 %
26.08.2020 04:24 18,4 C 17,8 C 17,2 C 76 % 1003,1 hPa 0,0 l/m 0 min 0 min 0 W/m 19,3 km/h (3 Bft) 97,87 %
26.08.2020 04:26 18,4 C 17,8 C 17,2 C 76 % 1003,0 hPa 0,0 l/m 0 min 0 min 0 W/m 25,7 km/h (4 Bft) 97,87 %
26.08.2020 04:28 18,4 C 17,8 C 17,2 C 76 % 1003,1 hPa 0,0 l/m 0 min 0 min 0 W/m 22,5 km/h (4 Bft) 97,87 %
26.08.2020 04:30 18,5 C 17,8 C 17,2 C 76 % 1003,0 hPa 0,0 l/m 0 min 0 min 0 W/m 22,5 km/h (4 Bft) 97,83 %
26.08.2020 04:32 18,5 C 17,8 C 17,2 C 76 % 1003,1 hPa 0,0 l/m 0 min 0 min 0 W/m 35,4 km/h (5 Bft) 98,11 %
26.08.2020 04:34 18,5 C 17,8 C 17,2 C 77 % 1003,1 hPa 0,0 l/m 0 min 0 min 0 W/m 41,8 km/h (6 Bft) 97,83 %
26.08.2020 04:36 18,5 C 17,8 C 17,2 C 76 % 1003,1 hPa 0,0 l/m 0 min 0 min 0 W/m 35,4 km/h (5 Bft) 95,74 %
26.08.2020 04:38 18,5 C 17,8 C 17,2 C 76 % 1003,1 hPa 0,0 l/m 0 min 0 min 0 W/m 32,2 km/h (5 Bft) 100,00 %
26.08.2020 04:40 18,5 C 17,8 C 17,2 C 77 % 1003,1 hPa 0,0 l/m 0 min 0 min 0 W/m 25,7 km/h (4 Bft) 95,74 %
26.08.2020 04:42 18,5 C 17,8 C 17,2 C 77 % 1003,2 hPa 0,0 l/m 0 min 0 min 0 W/m 41,8 km/h (6 Bft) 97,87 %
26.08.2020 04:44 18,5 C 17,8 C 17,2 C 76 % 1003,3 hPa 0,0 l/m 0 min 0 min 0 W/m 41,8 km/h (6 Bft) 95,74 %
26.08.2020 04:46 18,5 C 17,8 C 17,2 C 76 % 1003,1 hPa 0,0 l/m 0 min 0 min 0 W/m 25,7 km/h (4 Bft) 97,83 %
26.08.2020 04:48 18,5 C 17,8 C 17,2 C 76 % 1003,2 hPa 0,0 l/m 0 min 0 min 0 W/m 22,5 km/h (4 Bft) 97,87 %
26.08.2020 04:50 18,5 C 17,8 C 17,2 C 76 % 1003,2 hPa 0,0 l/m 0 min 0 min 0 W/m 35,4 km/h (5 Bft) 97,87 %
26.08.2020 04:52 18,5 C 17,8 C 17,2 C 76 % 1003,1 hPa 0,0 l/m 0 min 0 min 0 W/m 38,6 km/h (5 Bft) 97,87 %
26.08.2020 04:54 18,5 C 17,8 C 17,2 C 76 % 1003,2 hPa 0,0 l/m 0 min 0 min 0 W/m 25,7 km/h (4 Bft) 95,74 %
26.08.2020 04:56 18,4 C 17,8 C 17,2 C 76 % 1003,2 hPa 0,0 l/m 0 min 0 min 0 W/m 32,2 km/h (5 Bft) 97,87 %
26.08.2020 04:58 18,4 C 17,8 C 17,2 C 76 % 1003,3 hPa 0,0 l/m 0 min 0 min 0 W/m 25,7 km/h (4 Bft) 97,83 %
26.08.2020 05:00 18,4 C 17,8 C 17,2 C 76 % 1003,4 hPa 0,0 l/m 0 min 0 min 0 W/m 25,7 km/h (4 Bft) 95,74 %
26.08.2020 05:02 18,4 C 17,2 C 17,2 C 76 % 1003,4 hPa 0,0 l/m 0 min 0 min 0 W/m 22,5 km/h (4 Bft) 97,87 %
26.08.2020 05:04 18,4 C 17,2 C 17,2 C 76 % 1003,2 hPa 0,0 l/m 0 min 0 min 0 W/m 48,3 km/h (6 Bft) 97,87 %
26.08.2020 05:06 18,4 C 17,2 C 17,2 C 75 % 1003,3 hPa 0,0 l/m 0 min 0 min 0 W/m 41,8 km/h (6 Bft) 97,87 %
26.08.2020 05:08 18,4 C 17,2 C 17,2 C 75 % 1003,3 hPa 0,0 l/m 0 min 0 min 0 W/m 35,4 km/h (5 Bft) 97,83 %
26.08.2020 05:10 18,4 C 17,2 C 17,2 C 75 % 1003,4 hPa 0,0 l/m 0 min 0 min 0 W/m 22,5 km/h (4 Bft) 100,00 %
26.08.2020 05:12 18,4 C 17,2 C 16,7 C 75 % 1003,4 hPa 0,0 l/m 0 min 0 min 0 W/m 19,3 km/h (3 Bft) 100,00 %
26.08.2020 05:14 18,4 C 17,2 C 16,7 C 75 % 1003,4 hPa 0,0 l/m 0 min 0 min 0 W/m 29,0 km/h (5 Bft) 100,00 %
26.08.2020 05:16 18,3 C 17,2 C 16,7 C 75 % 1003,4 hPa 0,0 l/m 0 min 0 min 0 W/m 29,0 km/h (5 Bft) 100,00 %
26.08.2020 05:18 18,3 C 17,2 C 16,7 C 75 % 1003,3 hPa 0,0 l/m 0 min 0 min 0 W/m 22,5 km/h (4 Bft) 97,87 %
26.08.2020 05:20 18,3 C 17,2 C 16,7 C 75 % 1003,3 hPa 0,0 l/m 0 min 0 min 0 W/m 35,4 km/h (5 Bft) 100,00 %
26.08.2020 05:22 18,3 C 17,2 C 16,7 C 75 % 1003,3 hPa 0,0 l/m 0 min 0 min 0 W/m 29,0 km/h (5 Bft) 100,00 %
26.08.2020 05:24 18,3 C 17,2 C 16,7 C 75 % 1003,3 hPa 0,0 l/m 0 min 0 min 0 W/m 25,7 km/h (4 Bft) 97,87 %
26.08.2020 05:26 18,3 C 17,2 C 16,7 C 75 % 1003,4 hPa 0,0 l/m 0 min 0 min 0 W/m 25,7 km/h (4 Bft) 100,00 %
26.08.2020 05:28 18,3 C 17,2 C 16,7 C 75 % 1003,4 hPa 0,0 l/m 0 min 0 min 0 W/m 35,4 km/h (5 Bft) 97,87 %
26.08.2020 05:30 18,3 C 17,2 C 16,7 C 75 % 1003,1 hPa 0,0 l/m 0 min 0 min 0 W/m 25,7 km/h (4 Bft) 97,87 %
26.08.2020 05:32 18,2 C 17,2 C 16,7 C 76 % 1003,4 hPa 0,0 l/m 0 min 0 min 0 W/m 22,5 km/h (4 Bft) 95,65 %
26.08.2020 05:34 18,2 C 17,2 C 16,7 C 76 % 1003,4 hPa 0,0 l/m 0 min 0 min 0 W/m 22,5 km/h (4 Bft) 97,87 %
26.08.2020 05:36 18,2 C 17,2 C 16,7 C 76 % 1003,4 hPa 0,0 l/m 0 min 0 min 0 W/m 38,6 km/h (5 Bft) 97,87 %
26.08.2020 05:38 18,2 C 17,2 C 16,7 C 76 % 1003,4 hPa 0,0 l/m 0 min 0 min 0 W/m 25,7 km/h (4 Bft) 97,87 %
26.08.2020 05:40 18,2 C 17,2 C 16,7 C 76 % 1003,3 hPa 0,0 l/m 0 min 0 min 0 W/m 25,7 km/h (4 Bft) 97,87 %
26.08.2020 05:42 18,2 C 17,2 C 16,7 C 76 % 1003,3 hPa 0,0 l/m 0 min 0 min 0 W/m 45,1 km/h (6 Bft) 95,74 %
26.08.2020 05:44 18,1 C 17,2 C 16,7 C 76 % 1003,4 hPa 0,0 l/m 0 min 0 min 0 W/m 35,4 km/h (5 Bft) 97,83 %
26.08.2020 05:46 18,1 C 17,2 C 16,7 C 76 % 1003,3 hPa 0,0 l/m 0 min 0 min 0 W/m 41,8 km/h (6 Bft) 97,87 %
26.08.2020 05:48 18,1 C 17,2 C 16,7 C 76 % 1003,3 hPa 0,0 l/m 0 min 0 min 0 W/m 35,4 km/h (5 Bft) 97,87 %
26.08.2020 05:50 18,1 C 17,2 C 16,7 C 76 % 1003,3 hPa 0,0 l/m 0 min 0 min 0 W/m 25,7 km/h (4 Bft) 97,87 %
26.08.2020 05:52 18,1 C 17,2 C 16,7 C 76 % 1003,3 hPa 0,0 l/m 0 min 0 min 0 W/m 22,5 km/h (4 Bft) 93,62 %
26.08.2020 05:54 18,1 C 17,2 C 16,7 C 76 % 1003,1 hPa 0,0 l/m 0 min 0 min 0 W/m 19,3 km/h (3 Bft) 97,87 %
26.08.2020 05:56 18,1 C 17,2 C 16,7 C 76 % 1003,2 hPa 0,0 l/m 0 min 0 min 0 W/m 29,0 km/h (5 Bft) 95,65 %
26.08.2020 05:58 18,1 C 17,2 C 16,7 C 76 % 1003,1 hPa 0,0 l/m 0 min 0 min 0 W/m 29,0 km/h (5 Bft) 97,87 %
26.08.2020 06:00 18,1 C 17,2 C 16,7 C 76 % 1003,1 hPa 0,0 l/m 0 min 0 min 0 W/m 29,0 km/h (5 Bft) 97,87 %
26.08.2020 06:02 18,1 C 17,2 C 16,7 C 76 % 1003,3 hPa 0,0 l/m 0 min 0 min 0 W/m 35,4 km/h (5 Bft) 95,74 %
26.08.2020 06:04 18,1 C 17,2 C 16,7 C 76 % 1003,2 hPa 0,0 l/m 0 min 0 min 0 W/m 25,7 km/h (4 Bft) 97,87 %
26.08.2020 06:06 18,1 C 17,2 C 16,7 C 76 % 1003,1 hPa 0,0 l/m 0 min 0 min 0 W/m 48,3 km/h (6 Bft) 97,83 %
26.08.2020 06:08 18,1 C 17,2 C 16,7 C 76 % 1003,1 hPa 0,0 l/m 0 min 0 min 0 W/m 35,4 km/h (5 Bft) 97,87 %
26.08.2020 06:10 18,1 C 17,2 C 16,7 C 76 % 1003,3 hPa 0,0 l/m 0 min 0 min 0 W/m 25,7 km/h (4 Bft) 97,87 %
26.08.2020 06:12 18,1 C 17,2 C 16,7 C 76 % 1003,5 hPa 0,0 l/m 0 min 0 min 0 W/m 19,3 km/h (3 Bft) 95,74 %
26.08.2020 06:14 18,1 C 17,2 C 16,7 C 76 % 1003,4 hPa 0,0 l/m 0 min 0 min 0 W/m 19,3 km/h (3 Bft) 95,74 %
26.08.2020 06:16 18,1 C 17,2 C 16,7 C 76 % 1003,4 hPa 0,0 l/m 0 min 0 min 0 W/m 32,2 km/h (5 Bft) 95,74 %
26.08.2020 06:18 18,1 C 17,2 C 16,7 C 76 % 1003,4 hPa 0,0 l/m 0 min 0 min 0 W/m 35,4 km/h (5 Bft) 93,48 %
26.08.2020 06:20 18,1 C 17,2 C 16,7 C 76 % 1003,4 hPa 0,0 l/m 0 min 0 min 0 W/m 22,5 km/h (4 Bft) 95,74 %
26.08.2020 06:22 18,1 C 17,2 C 16,7 C 76 % 1003,4 hPa 0,0 l/m 0 min 0 min 0 W/m 41,8 km/h (6 Bft) 78,72 %
26.08.2020 06:24 18,1 C 17,2 C 16,7 C 76 % 1003,2 hPa 0,0 l/m 0 min 0 min 0 W/m 38,6 km/h (5 Bft) 69,05 %
26.08.2020 06:26 18,1 C 17,2 C 16,7 C 76 % 1003,3 hPa 0,0 l/m 0 min 0 min 0 W/m 25,7 km/h (4 Bft) 95,74 %
26.08.2020 06:28 18,1 C 17,2 C 16,7 C 76 % 1003,1 hPa 0,0 l/m 0 min 0 min 0 W/m 25,7 km/h (4 Bft) 97,87 %
26.08.2020 06:30 18,1 C 17,2 C 16,7 C 76 % 1003,2 hPa 0,0 l/m 0 min 0 min 0 W/m 29,0 km/h (5 Bft) 93,48 %
26.08.2020 06:32 18,1 C 16,7 C 16,7 C 76 % 1003,1 hPa 0,0 l/m 0 min 0 min 0 W/m 32,2 km/h (5 Bft) 97,87 %
26.08.2020 06:34 18,1 C 16,7 C 16,7 C 76 % 1003,1 hPa 0,0 l/m 0 min 0 min 0 W/m 29,0 km/h (5 Bft) 95,56 %
26.08.2020 06:36 18,0 C 16,7 C 16,7 C 76 % 1003,1 hPa 0,0 l/m 0 min 0 min 0 W/m 29,0 km/h (5 Bft) 97,87 %
26.08.2020 06:38 17,9 C 16,7 C 16,7 C 76 % 1003,1 hPa 0,0 l/m 0 min 0 min 0 W/m 19,3 km/h (3 Bft) 97,83 %
26.08.2020 06:40 17,9 C 16,7 C 16,7 C 76 % 1003,3 hPa 0,0 l/m 0 min 0 min 0 W/m 29,0 km/h (5 Bft) 95,74 %
26.08.2020 06:42 17,9 C 16,7 C 16,7 C 76 % 1003,1 hPa 0,0 l/m 0 min 0 min 0 W/m 29,0 km/h (5 Bft) 97,87 %
26.08.2020 06:44 17,9 C 17,2 C 16,7 C 76 % 1003,3 hPa 0,0 l/m 0 min 0 min 0 W/m 29,0 km/h (5 Bft) 97,87 %
26.08.2020 06:46 17,9 C 17,2 C 16,7 C 76 % 1003,3 hPa 0,0 l/m 0 min 0 min 0 W/m 29,0 km/h (5 Bft) 95,74 %
26.08.2020 06:48 17,9 C 17,2 C 16,7 C 76 % 1003,5 hPa 0,0 l/m 0 min 0 min 0 W/m 35,4 km/h (5 Bft) 97,87 %
26.08.2020 06:50 17,9 C 16,7 C 16,7 C 76 % 1003,4 hPa 0,0 l/m 0 min 0 min 0 W/m 19,3 km/h (3 Bft) 97,83 %
26.08.2020 06:52 17,9 C 16,7 C 16,7 C 76 % 1003,5 hPa 0,0 l/m 0 min 0 min 5 W/m 29,0 km/h (5 Bft) 95,74 %
26.08.2020 06:54 17,9 C 16,7 C 16,7 C 76 % 1003,4 hPa 0,0 l/m 0 min 0 min 5 W/m 25,7 km/h (4 Bft) 97,87 %
26.08.2020 06:56 17,9 C 16,7 C 16,7 C 77 % 1003,3 hPa 0,0 l/m 0 min 0 min 7 W/m 32,2 km/h (5 Bft) 97,87 %
26.08.2020 06:58 17,9 C 16,7 C 16,7 C 77 % 1003,4 hPa 0,0 l/m 0 min 0 min 5 W/m 32,2 km/h (5 Bft) 97,87 %
26.08.2020 07:00 17,9 C 17,2 C 16,7 C 77 % 1003,4 hPa 0,0 l/m 0 min 0 min 5 W/m 25,7 km/h (4 Bft) 97,83 %
26.08.2020 07:02 17,9 C 17,2 C 16,7 C 77 % 1003,4 hPa 0,0 l/m 0 min 0 min 6 W/m 48,3 km/h (6 Bft) 97,87 %
26.08.2020 07:04 17,9 C 17,2 C 16,7 C 76 % 1003,4 hPa 0,0 l/m 0 min 0 min 3 W/m 45,1 km/h (6 Bft) 100,00 %
26.08.2020 07:06 17,9 C 17,2 C 16,7 C 77 % 1003,4 hPa 0,0 l/m 0 min 0 min 5 W/m 45,1 km/h (6 Bft) 97,87 %
26.08.2020 07:08 17,9 C 16,7 C 16,7 C 77 % 1003,4 hPa 0,0 l/m 0 min 0 min 5 W/m 29,0 km/h (5 Bft) 97,87 %
26.08.2020 07:10 17,9 C 16,7 C 16,7 C 77 % 1003,6 hPa 0,0 l/m 0 min 0 min 5 W/m 41,8 km/h (6 Bft) 97,87 %
26.08.2020 07:12 17,8 C 16,7 C 16,7 C 77 % 1003,5 hPa 0,0 l/m 0 min 0 min 5 W/m 35,4 km/h (5 Bft) 97,83 %
26.08.2020 07:14 17,8 C 16,7 C 16,7 C 77 % 1003,7 hPa 0,0 l/m 0 min 0 min 5 W/m 25,7 km/h (4 Bft) 95,74 %
26.08.2020 07:16 17,8 C 16,7 C 16,1 C 77 % 1003,7 hPa 0,0 l/m 0 min 0 min 5 W/m 35,4 km/h (5 Bft) 97,87 %
26.08.2020 07:18 17,8 C 16,7 C 16,1 C 78 % 1003,8 hPa 0,0 l/m 0 min 0 min 6 W/m 22,5 km/h (4 Bft) 97,87 %
26.08.2020 07:20 17,8 C 16,7 C 16,1 C 78 % 1003,9 hPa 0,0 l/m 0 min 0 min 5 W/m 16,1 km/h (3 Bft) 97,87 %
26.08.2020 07:22 17,8 C 16,1 C 16,1 C 78 % 1003,9 hPa 0,0 l/m 0 min 2 min 5 W/m 16,1 km/h (3 Bft) 97,87 %
26.08.2020 07:24 17,7 C 16,1 C 16,1 C 79 % 1004,0 hPa 0,0 l/m 0 min 2 min 5 W/m 12,9 km/h (3 Bft) 97,83 %
26.08.2020 07:26 17,7 C 16,1 C 16,1 C 79 % 1004,1 hPa 0,0 l/m 0 min 2 min 7 W/m 19,3 km/h (3 Bft) 97,87 %
26.08.2020 07:28 17,6 C 16,1 C 15,6 C 80 % 1004,2 hPa 0,0 l/m 0 min 2 min 7 W/m 19,3 km/h (3 Bft) 97,87 %
26.08.2020 07:30 17,6 C 16,1 C 16,1 C 79 % 1004,1 hPa 0,0 l/m 0 min 0 min 7 W/m 32,2 km/h (5 Bft) 95,74 %
26.08.2020 07:32 17,5 C 16,7 C 16,1 C 79 % 1004,2 hPa 0,0 l/m 0 min 0 min 8 W/m 38,6 km/h (5 Bft) 97,87 %
26.08.2020 07:34 17,5 C 16,7 C 16,1 C 79 % 1004,0 hPa 0,0 l/m 0 min 0 min 11 W/m 25,7 km/h (4 Bft) 97,92 %
26.08.2020 07:36 17,5 C 16,7 C 16,1 C 79 % 1004,2 hPa 0,0 l/m 0 min 0 min 12 W/m 38,6 km/h (5 Bft) 97,83 %
26.08.2020 07:38 17,5 C 16,7 C 16,1 C 79 % 1004,1 hPa 0,0 l/m 0 min 0 min 17 W/m 32,2 km/h (5 Bft) 97,87 %
26.08.2020 07:40 17,5 C 16,7 C 16,1 C 78 % 1004,1 hPa 0,0 l/m 0 min 0 min 15 W/m 38,6 km/h (5 Bft) 97,87 %
26.08.2020 07:42 17,6 C 16,7 C 16,1 C 78 % 1004,1 hPa 0,0 l/m 0 min 0 min 19 W/m 25,7 km/h (4 Bft) 95,74 %
26.08.2020 07:44 17,6 C 16,7 C 16,1 C 78 % 1004,1 hPa 0,0 l/m 0 min 0 min 27 W/m 22,5 km/h (4 Bft) 97,87 %
26.08.2020 07:46 17,6 C 16,7 C 16,7 C 78 % 1004,1 hPa 0,0 l/m 0 min 0 min 31 W/m 29,0 km/h (5 Bft) 95,74 %
26.08.2020 07:48 17,6 C 16,7 C 16,7 C 78 % 1004,4 hPa 0,0 l/m 0 min 0 min 35 W/m 29,0 km/h (5 Bft) 93,48 %
26.08.2020 07:50 17,6 C 16,7 C 16,7 C 78 % 1004,2 hPa 0,0 l/m 0 min 0 min 39 W/m 25,7 km/h (4 Bft) 100,00 %
26.08.2020 07:52 17,6 C 16,7 C 16,7 C 78 % 1004,4 hPa 0,0 l/m 0 min 0 min 36 W/m 22,5 km/h (4 Bft) 100,00 %
26.08.2020 07:54 17,6 C 17,2 C 16,7 C 78 % 1004,2 hPa 0,0 l/m 0 min 0 min 38 W/m 25,7 km/h (4 Bft) 97,87 %
26.08.2020 07:56 17,6 C 17,2 C 16,7 C 78 % 1004,3 hPa 0,0 l/m 0 min 0 min 44 W/m 22,5 km/h (4 Bft) 100,00 %
26.08.2020 07:58 17,6 C 17,2 C 16,7 C 78 % 1004,5 hPa 0,0 l/m 0 min 0 min 44 W/m 29,0 km/h (5 Bft) 97,83 %
26.08.2020 08:00 17,7 C 16,7 C 16,7 C 78 % 1004,4 hPa 0,0 l/m 0 min 0 min 49 W/m 29,0 km/h (5 Bft) 100,00 %
26.08.2020 08:02 17,7 C 16,7 C 16,7 C 78 % 1004,3 hPa 0,0 l/m 0 min 0 min 49 W/m 29,0 km/h (5 Bft) 95,83 %
26.08.2020 08:04 17,7 C 16,7 C 16,7 C 78 % 1004,5 hPa 0,0 l/m 0 min 0 min 50 W/m 32,2 km/h (5 Bft) 100,00 %
26.08.2020 08:06 17,6 C 16,7 C 16,7 C 78 % 1004,6 hPa 0,0 l/m 0 min 0 min 51 W/m 29,0 km/h (5 Bft) 100,00 %
26.08.2020 08:08 17,6 C 16,7 C 16,1 C 79 % 1004,6 hPa 0,0 l/m 0 min 0 min 47 W/m 25,7 km/h (4 Bft) 100,00 %
26.08.2020 08:10 17,6 C 16,7 C 16,1 C 79 % 1004,7 hPa 0,0 l/m 0 min 0 min 48 W/m 38,6 km/h (5 Bft) 100,00 %
26.08.2020 08:12 17,6 C 16,7 C 16,1 C 79 % 1004,6 hPa 0,0 l/m 0 min 0 min 54 W/m 25,7 km/h (4 Bft) 100,00 %
26.08.2020 08:14 17,6 C 16,7 C 16,1 C 79 % 1004,6 hPa 0,0 l/m 0 min 0 min 52 W/m 45,1 km/h (6 Bft) 100,00 %
26.08.2020 08:16 17,5 C 16,7 C 16,1 C 79 % 1004,7 hPa 0,0 l/m 0 min 0 min 48 W/m 19,3 km/h (3 Bft) 100,00 %
26.08.2020 08:18 17,5 C 16,7 C 16,1 C 80 % 1004,8 hPa 0,0 l/m 0 min 0 min 46 W/m 45,1 km/h (6 Bft) 100,00 %
26.08.2020 08:20 17,4 C 16,7 C 16,1 C 80 % 1004,7 hPa 0,0 l/m 0 min 0 min 53 W/m 25,7 km/h (4 Bft) 100,00 %
26.08.2020 08:22 17,4 C 16,7 C 16,1 C 80 % 1004,8 hPa 0,0 l/m 0 min 0 min 57 W/m 32,2 km/h (5 Bft) 100,00 %
26.08.2020 08:24 17,4 C 16,7 C 16,1 C 80 % 1004,9 hPa 0,0 l/m 0 min 0 min 61 W/m 19,3 km/h (3 Bft) 100,00 %
26.08.2020 08:26 17,3 C 16,7 C 16,1 C 81 % 1004,7 hPa 0,0 l/m 0 min 0 min 64 W/m 35,4 km/h (5 Bft) 100,00 %
26.08.2020 08:28 17,3 C 16,7 C 16,1 C 81 % 1004,7 hPa 0,0 l/m 0 min 0 min 72 W/m 16,1 km/h (3 Bft) 97,87 %
26.08.2020 08:30 17,3 C 16,7 C 16,1 C 81 % 1005,0 hPa 0,0 l/m 0 min 0 min 82 W/m 25,7 km/h (4 Bft) 100,00 %
26.08.2020 08:32 17,3 C 16,7 C 16,1 C 81 % 1005,0 hPa 0,0 l/m 0 min 0 min 83 W/m 38,6 km/h (5 Bft) 100,00 %
26.08.2020 08:34 17,2 C 16,7 C 16,1 C 81 % 1004,9 hPa 0,0 l/m 0 min 0 min 79 W/m 38,6 km/h (5 Bft) 100,00 %
26.08.2020 08:38 17,2 C 16,7 C 16,1 C 82 % 1005,0 hPa 0,0 l/m 0 min 0 min 95 W/m 25,7 km/h (4 Bft) 100,00 %
26.08.2020 08:40 17,2 C 16,7 C 16,1 C 82 % 1005,0 hPa 0,0 l/m 0 min 0 min 96 W/m 48,3 km/h (6 Bft) 100,00 %
26.08.2020 08:42 17,2 C 16,7 C 16,1 C 82 % 1005,2 hPa 0,0 l/m 0 min 0 min 90 W/m 38,6 km/h (5 Bft) 100,00 %
26.08.2020 08:44 17,2 C 16,7 C 16,1 C 82 % 1005,5 hPa 0,0 l/m 0 min 0 min 81 W/m 32,2 km/h (5 Bft) 97,87 %
26.08.2020 08:46 17,2 C 16,7 C 16,1 C 82 % 1005,1 hPa 0,0 l/m 0 min 0 min 84 W/m 25,7 km/h (4 Bft) 100,00 %
26.08.2020 08:48 17,2 C 16,7 C 16,1 C 82 % 1005,2 hPa 0,0 l/m 0 min 0 min 88 W/m 35,4 km/h (5 Bft) 100,00 %
26.08.2020 08:50 17,2 C 16,7 C 16,1 C 82 % 1005,2 hPa 0,0 l/m 0 min 0 min 96 W/m 54,7 km/h (7 Bft) 100,00 %
26.08.2020 08:52 17,2 C 16,7 C 16,1 C 82 % 1005,2 hPa 0,0 l/m 0 min 0 min 92 W/m 35,4 km/h (5 Bft) 100,00 %
26.08.2020 08:54 17,2 C 16,7 C 16,1 C 82 % 1005,2 hPa 0,0 l/m 0 min 0 min 97 W/m 32,2 km/h (5 Bft) 100,00 %
26.08.2020 08:56 17,2 C 16,7 C 16,1 C 82 % 1005,4 hPa 0,0 l/m 0 min 0 min 96 W/m 22,5 km/h (4 Bft) 97,87 %
26.08.2020 08:58 17,2 C 16,7 C 16,1 C 82 % 1005,4 hPa 0,0 l/m 0 min 0 min 96 W/m 32,2 km/h (5 Bft) 95,83 %
26.08.2020 09:00 17,2 C 16,7 C 16,1 C 82 % 1005,5 hPa 0,0 l/m 0 min 0 min 89 W/m 29,0 km/h (5 Bft) 93,62 %
26.08.2020 09:02 17,2 C 16,7 C 16,1 C 82 % 1005,4 hPa 0,0 l/m 0 min 0 min 100 W/m 32,2 km/h (5 Bft) 95,65 %
26.08.2020 09:04 17,2 C 16,7 C 16,1 C 82 % 1005,5 hPa 0,0 l/m 0 min 0 min 99 W/m 35,4 km/h (5 Bft) 95,74 %
26.08.2020 09:06 17,2 C 16,7 C 16,1 C 82 % 1005,4 hPa 0,0 l/m 0 min 0 min 93 W/m 22,5 km/h (4 Bft) 93,62 %
26.08.2020 09:08 17,2 C 16,7 C 16,1 C 82 % 1005,6 hPa 0,0 l/m 0 min 0 min 86 W/m 38,6 km/h (5 Bft) 95,24 %
26.08.2020 09:10 17,2 C 16,7 C 16,1 C 82 % 1005,7 hPa 0,0 l/m 0 min 0 min 83 W/m 35,4 km/h (5 Bft) 95,83 %
26.08.2020 09:12 17,2 C 16,7 C 16,1 C 82 % 1005,6 hPa 0,0 l/m 0 min 0 min 82 W/m 29,0 km/h (5 Bft) 97,92 %
26.08.2020 09:14 17,2 C 16,7 C 16,1 C 82 % 1005,7 hPa 0,0 l/m 0 min 0 min 93 W/m 25,7 km/h (4 Bft) 95,74 %
26.08.2020 09:16 17,2 C 16,7 C 16,1 C 82 % 1005,7 hPa 0,0 l/m 0 min 0 min 85 W/m 51,5 km/h (7 Bft) 95,74 %
26.08.2020 09:18 17,2 C 16,7 C 16,1 C 82 % 1005,6 hPa 0,0 l/m 0 min 0 min 88 W/m 19,3 km/h (3 Bft) 95,74 %
26.08.2020 09:20 17,2 C 16,7 C 16,1 C 82 % 1005,7 hPa 0,0 l/m 0 min 0 min 95 W/m 22,5 km/h (4 Bft) 95,74 %
26.08.2020 09:22 17,2 C 16,7 C 16,1 C 82 % 1005,7 hPa 0,0 l/m 0 min 0 min 99 W/m 29,0 km/h (5 Bft) 95,83 %
26.08.2020 09:24 17,2 C 16,7 C 16,1 C 82 % 1005,7 hPa 0,0 l/m 0 min 0 min 103 W/m 35,4 km/h (5 Bft) 95,74 %
26.08.2020 09:26 17,2 C 16,7 C 16,1 C 82 % 1005,8 hPa 0,0 l/m 0 min 0 min 100 W/m 38,6 km/h (5 Bft) 93,62 %
26.08.2020 09:28 17,2 C 16,7 C 16,1 C 82 % 1005,8 hPa 0,0 l/m 0 min 0 min 103 W/m 32,2 km/h (5 Bft) 95,74 %
26.08.2020 09:30 17,2 C 17,2 C 16,1 C 82 % 1005,9 hPa 0,0 l/m 0 min 0 min 119 W/m 25,7 km/h (4 Bft) 95,74 %
26.08.2020 09:32 17,3 C 17,2 C 16,1 C 82 % 1005,9 hPa 0,0 l/m 0 min 0 min 126 W/m 25,7 km/h (4 Bft) 95,74 %
26.08.2020 09:34 17,3 C 17,2 C 16,7 C 82 % 1005,8 hPa 0,0 l/m 0 min 0 min 130 W/m 22,5 km/h (4 Bft) 95,74 %
26.08.2020 09:36 17,3 C 17,2 C 16,7 C 82 % 1005,9 hPa 0,0 l/m 0 min 0 min 123 W/m 25,7 km/h (4 Bft) 93,48 %
26.08.2020 09:38 17,3 C 17,2 C 16,7 C 82 % 1005,9 hPa 0,0 l/m 0 min 0 min 123 W/m 29,0 km/h (5 Bft) 95,74 %
26.08.2020 09:40 17,3 C 17,2 C 16,7 C 82 % 1005,9 hPa 0,0 l/m 0 min 0 min 151 W/m 25,7 km/h (4 Bft) 95,74 %
26.08.2020 09:42 17,4 C 18,3 C 17,8 C 82 % 1005,8 hPa 0,0 l/m 0 min 0 min 215 W/m 29,0 km/h (5 Bft) 93,62 %
26.08.2020 09:44 17,4 C 17,8 C 17,2 C 81 % 1005,7 hPa 0,0 l/m 0 min 0 min 194 W/m 38,6 km/h (5 Bft) 93,62 %
26.08.2020 09:46 17,4 C 17,8 C 17,2 C 81 % 1005,8 hPa 0,0 l/m 0 min 0 min 167 W/m 29,0 km/h (5 Bft) 93,62 %
26.08.2020 09:48 17,5 C 17,8 C 17,2 C 81 % 1005,9 hPa 0,0 l/m 0 min 0 min 190 W/m 22,5 km/h (4 Bft) 91,30 %
26.08.2020 09:50 17,6 C 18,9 C 18,3 C 81 % 1006,0 hPa 0,0 l/m 0 min 0 min 220 W/m 22,5 km/h (4 Bft) 91,49 %
26.08.2020 09:52 17,6 C 18,9 C 18,3 C 81 % 1006,1 hPa 0,0 l/m 2 min 0 min 236 W/m 25,7 km/h (4 Bft) 93,62 %
26.08.2020 09:54 17,7 C 18,9 C 17,8 C 81 % 1006,0 hPa 0,0 l/m 2 min 0 min 248 W/m 25,7 km/h (4 Bft) 93,62 %
26.08.2020 09:56 17,7 C 18,9 C 17,8 C 81 % 1006,0 hPa 0,0 l/m 0 min 0 min 215 W/m 22,5 km/h (4 Bft) 95,74 %
26.08.2020 09:58 17,8 C 18,9 C 17,8 C 81 % 1006,1 hPa 0,0 l/m 0 min 0 min 224 W/m 32,2 km/h (5 Bft) 95,74 %
26.08.2020 10:00 17,9 C 19,4 C 18,9 C 81 % 1006,1 hPa 0,0 l/m 2 min 0 min 343 W/m 35,4 km/h (5 Bft) 93,48 %
26.08.2020 10:02 17,9 C 18,9 C 17,8 C 80 % 1006,3 hPa 0,0 l/m 2 min 0 min 265 W/m 48,3 km/h (6 Bft) 95,74 %
26.08.2020 10:04 18,0 C 18,3 C 17,8 C 80 % 1006,2 hPa 0,0 l/m 0 min 0 min 201 W/m 45,1 km/h (6 Bft) 92,16 %
26.08.2020 10:06 18,0 C 18,9 C 18,3 C 80 % 1006,3 hPa 0,0 l/m 2 min 0 min 279 W/m 41,8 km/h (6 Bft) 95,65 %
26.08.2020 10:08 18,1 C 18,3 C 17,8 C 80 % 1006,3 hPa 0,0 l/m 0 min 0 min 239 W/m 48,3 km/h (6 Bft) 93,62 %
26.08.2020 10:10 18,1 C 18,3 C 17,8 C 80 % 1006,3 hPa 0,0 l/m 0 min 0 min 236 W/m 22,5 km/h (4 Bft) 95,74 %
26.08.2020 10:12 18,1 C 18,3 C 17,2 C 80 % 1006,4 hPa 0,0 l/m 0 min 0 min 169 W/m 32,2 km/h (5 Bft) 95,74 %
26.08.2020 10:14 18,1 C 17,8 C 17,2 C 80 % 1006,4 hPa 0,0 l/m 0 min 0 min 156 W/m 25,7 km/h (4 Bft) 95,74 %
26.08.2020 10:16 18,1 C 17,8 C 17,2 C 80 % 1006,4 hPa 0,0 l/m 0 min 0 min 167 W/m 29,0 km/h (5 Bft) 95,74 %
26.08.2020 10:18 18,1 C 17,8 C 17,2 C 80 % 1006,5 hPa 0,0 l/m 0 min 0 min 177 W/m 32,2 km/h (5 Bft) 97,83 %
26.08.2020 10:20 18,1 C 17,8 C 17,2 C 80 % 1006,6 hPa 0,0 l/m 0 min 0 min 168 W/m 35,4 km/h (5 Bft) 97,87 %
26.08.2020 10:22 18,1 C 17,8 C 16,7 C 80 % 1006,6 hPa 0,0 l/m 0 min 0 min 146 W/m 25,7 km/h (4 Bft) 95,74 %
26.08.2020 10:24 18,0 C 17,8 C 16,7 C 81 % 1006,6 hPa 0,0 l/m 0 min 0 min 137 W/m 16,1 km/h (3 Bft) 95,74 %
26.08.2020 10:26 18,0 C 17,2 C 16,7 C 81 % 1006,5 hPa 0,0 l/m 0 min 0 min 135 W/m 61,2 km/h (7 Bft) 93,62 %
26.08.2020 10:28 17,9 C 17,2 C 16,7 C 81 % 1006,6 hPa 0,0 l/m 0 min 0 min 136 W/m 32,2 km/h (5 Bft) 100,00 %
26.08.2020 10:30 17,8 C 17,2 C 16,7 C 81 % 1006,7 hPa 0,0 l/m 0 min 0 min 128 W/m 29,0 km/h (5 Bft) 97,87 %
26.08.2020 10:32 17,8 C 17,2 C 16,7 C 81 % 1006,6 hPa 0,0 l/m 0 min 0 min 149 W/m 29,0 km/h (5 Bft) 100,00 %
26.08.2020 10:34 17,8 C 17,8 C 16,7 C 81 % 1006,7 hPa 0,0 l/m 0 min 0 min 205 W/m 29,0 km/h (5 Bft) 100,00 %
26.08.2020 10:36 17,8 C 18,3 C 17,2 C 81 % 1006,7 hPa 0,0 l/m 2 min 0 min 326 W/m 38,6 km/h (5 Bft) 100,00 %
26.08.2020 10:38 17,8 C 18,9 C 17,2 C 82 % 1006,8 hPa 0,0 l/m 2 min 0 min 283 W/m 32,2 km/h (5 Bft) 100,00 %
26.08.2020 10:40 17,8 C 20,0 C 17,8 C 82 % 1006,7 hPa 0,0 l/m 2 min 0 min 376 W/m 29,0 km/h (5 Bft) 97,87 %
26.08.2020 10:42 17,9 C 20,0 C 18,3 C 82 % 1006,7 hPa 0,0 l/m 2 min 0 min 402 W/m 19,3 km/h (3 Bft) 100,00 %
26.08.2020 10:44 18,0 C 19,4 C 18,3 C 82 % 1006,7 hPa 0,0 l/m 2 min 0 min 344 W/m 38,6 km/h (5 Bft) 100,00 %
26.08.2020 10:46 18,1 C 19,4 C 18,3 C 81 % 1006,8 hPa 0,0 l/m 2 min 0 min 361 W/m 32,2 km/h (5 Bft) 100,00 %
26.08.2020 10:48 18,2 C 20,0 C 18,3 C 81 % 1006,8 hPa 0,0 l/m 2 min 0 min 438 W/m 22,5 km/h (4 Bft) 100,00 %
26.08.2020 10:50 18,3 C 20,6 C 18,3 C 81 % 1006,7 hPa 0,0 l/m 2 min 0 min 436 W/m 29,0 km/h (5 Bft) 100,00 %
26.08.2020 10:52 18,4 C 20,6 C 18,3 C 80 % 1006,8 hPa 0,0 l/m 2 min 0 min 356 W/m 29,0 km/h (5 Bft) 100,00 %
26.08.2020 10:54 18,4 C 19,4 C 18,3 C 80 % 1006,8 hPa 0,0 l/m 0 min 0 min 286 W/m 32,2 km/h (5 Bft) 100,00 %
26.08.2020 10:56 18,5 C 18,9 C 17,8 C 79 % 1006,9 hPa 0,0 l/m 0 min 0 min 263 W/m 41,8 km/h (6 Bft) 100,00 %
26.08.2020 10:58 18,5 C 18,3 C 17,8 C 79 % 1007,1 hPa 0,0 l/m 0 min 0 min 229 W/m 38,6 km/h (5 Bft) 100,00 %
26.08.2020 11:00 18,5 C 18,3 C 17,8 C 79 % 1007,0 hPa 0,0 l/m 0 min 0 min 221 W/m 35,4 km/h (5 Bft) 100,00 %
26.08.2020 11:02 18,5 C 18,3 C 17,8 C 79 % 1007,0 hPa 0,0 l/m 0 min 0 min 226 W/m 22,5 km/h (4 Bft) 100,00 %
26.08.2020 11:04 18,5 C 18,9 C 17,8 C 79 % 1007,1 hPa 0,0 l/m 0 min 0 min 222 W/m 35,4 km/h (5 Bft) 100,00 %
26.08.2020 11:06 18,5 C 18,3 C 17,8 C 79 % 1007,1 hPa 0,0 l/m 0 min 0 min 208 W/m 41,8 km/h (6 Bft) 100,00 %
26.08.2020 11:08 18,4 C 18,3 C 17,8 C 79 % 1007,2 hPa 0,0 l/m 0 min 0 min 196 W/m 35,4 km/h (5 Bft) 95,74 %
26.08.2020 11:10 18,5 C 18,3 C 17,8 C 79 % 1007,1 hPa 0,0 l/m 0 min 0 min 198 W/m 19,3 km/h (3 Bft) 100,00 %
26.08.2020 11:12 18,4 C 18,3 C 17,8 C 79 % 1007,2 hPa 0,0 l/m 0 min 0 min 198 W/m 25,7 km/h (4 Bft) 100,00 %
26.08.2020 11:14 18,4 C 18,9 C 17,8 C 79 % 1007,2 hPa 0,0 l/m 0 min 0 min 214 W/m 29,0 km/h (5 Bft) 100,00 %
26.08.2020 11:16 18,4 C 18,9 C 17,8 C 79 % 1007,3 hPa 0,0 l/m 0 min 0 min 235 W/m 35,4 km/h (5 Bft) 100,00 %
26.08.2020 11:18 18,5 C 18,9 C 17,8 C 79 % 1007,2 hPa 0,0 l/m 0 min 0 min 244 W/m 16,1 km/h (3 Bft) 95,74 %
26.08.2020 11:20 18,5 C 18,9 C 17,8 C 79 % 1007,3 hPa 0,0 l/m 0 min 0 min 231 W/m 38,6 km/h (5 Bft) 97,87 %
26.08.2020 11:22 18,5 C 18,9 C 17,8 C 78 % 1007,3 hPa 0,0 l/m 0 min 0 min 229 W/m 29,0 km/h (5 Bft) 100,00 %
26.08.2020 11:24 18,6 C 18,9 C 17,8 C 78 % 1007,4 hPa 0,0 l/m 0 min 0 min 234 W/m 29,0 km/h (5 Bft) 100,00 %
26.08.2020 11:26 18,6 C 18,9 C 17,8 C 78 % 1007,3 hPa 0,0 l/m 0 min 0 min 231 W/m 22,5 km/h (4 Bft) 100,00 %
26.08.2020 11:28 18,6 C 18,9 C 17,8 C 78 % 1007,4 hPa 0,0 l/m 0 min 0 min 207 W/m 19,3 km/h (3 Bft) 100,00 %
26.08.2020 11:30 18,6 C 18,9 C 17,8 C 78 % 1007,3 hPa 0,0 l/m 0 min 0 min 207 W/m 19,3 km/h (3 Bft) 100,00 %
26.08.2020 11:32 18,7 C 19,4 C 18,3 C 78 % 1007,5 hPa 0,0 l/m 0 min 0 min 267 W/m 29,0 km/h (5 Bft) 95,74 %
26.08.2020 11:34 18,7 C 20,6 C 18,3 C 78 % 1007,4 hPa 0,0 l/m 2 min 0 min 390 W/m 48,3 km/h (6 Bft) 97,83 %
26.08.2020 11:36 18,8 C 21,7 C 18,9 C 78 % 1007,3 hPa 0,0 l/m 2 min 0 min 415 W/m 38,6 km/h (5 Bft) 100,00 %
26.08.2020 11:38 19,0 C 20,6 C 18,9 C 77 % 1007,5 hPa 0,0 l/m 2 min 0 min 378 W/m 35,4 km/h (5 Bft) 100,00 %
26.08.2020 11:40 19,1 C 20,0 C 18,9 C 77 % 1007,5 hPa 0,0 l/m 2 min 0 min 368 W/m 29,0 km/h (5 Bft) 97,87 %
26.08.2020 11:42 19,1 C 20,0 C 18,9 C 76 % 1007,5 hPa 0,0 l/m 0 min 0 min 276 W/m 29,0 km/h (5 Bft) 100,00 %
26.08.2020 11:44 19,2 C 20,0 C 18,9 C 76 % 1007,5 hPa 0,0 l/m 0 min 0 min 248 W/m 25,7 km/h (4 Bft) 100,00 %
26.08.2020 11:46 19,2 C 19,4 C 18,3 C 77 % 1007,6 hPa 0,0 l/m 0 min 0 min 239 W/m 22,5 km/h (4 Bft) 100,00 %
26.08.2020 11:48 19,2 C 19,4 C 18,3 C 76 % 1007,7 hPa 0,0 l/m 0 min 0 min 227 W/m 32,2 km/h (5 Bft) 100,00 %
26.08.2020 11:50 19,2 C 18,9 C 18,3 C 76 % 1007,8 hPa 0,0 l/m 0 min 0 min 233 W/m 32,2 km/h (5 Bft) 100,00 %
26.08.2020 11:52 19,2 C 20,0 C 18,3 C 76 % 1007,8 hPa 0,0 l/m 0 min 0 min 285 W/m 19,3 km/h (3 Bft) 100,00 %
26.08.2020 11:54 19,2 C 20,0 C 18,3 C 76 % 1007,8 hPa 0,0 l/m 0 min 0 min 313 W/m 25,7 km/h (4 Bft) 100,00 %
26.08.2020 11:56 19,2 C 20,0 C 18,9 C 76 % 1007,8 hPa 0,0 l/m 0 min 0 min 305 W/m 45,1 km/h (6 Bft) 97,87 %
26.08.2020 11:58 19,2 C 19,4 C 18,3 C 76 % 1007,9 hPa 0,0 l/m 0 min 0 min 302 W/m 35,4 km/h (5 Bft) 100,00 %
26.08.2020 12:00 19,2 C 20,0 C 18,3 C 76 % 1007,9 hPa 0,0 l/m 2 min 0 min 363 W/m 25,7 km/h (4 Bft) 97,87 %
26.08.2020 12:02 19,3 C 20,0 C 18,9 C 77 % 1007,9 hPa 0,0 l/m 0 min 0 min 328 W/m 19,3 km/h (3 Bft) 97,87 %
26.08.2020 12:04 19,3 C 20,0 C 18,3 C 77 % 1008,2 hPa 0,0 l/m 2 min 0 min 386 W/m 38,6 km/h (5 Bft) 97,87 %
26.08.2020 12:08 19,3 C 19,4 C 18,3 C 77 % 1008,2 hPa 0,0 l/m 0 min 0 min 295 W/m 38,6 km/h (5 Bft) 97,87 %
26.08.2020 12:10 19,3 C 20,0 C 18,3 C 77 % 1008,3 hPa 0,0 l/m 0 min 0 min 282 W/m 25,7 km/h (4 Bft) 97,83 %
26.08.2020 12:12 19,3 C 21,7 C 18,9 C 77 % 1008,4 hPa 0,0 l/m 0 min 0 min 304 W/m 22,5 km/h (4 Bft) 95,74 %
26.08.2020 12:14 19,4 C 21,7 C 18,9 C 78 % 1008,4 hPa 0,0 l/m 0 min 0 min 304 W/m 41,8 km/h (6 Bft) 97,87 %
26.08.2020 12:16 19,4 C 23,3 C 19,4 C 79 % 1008,5 hPa 0,0 l/m 0 min 0 min 304 W/m 22,5 km/h (4 Bft) 95,74 %
26.08.2020 12:18 19,6 C 23,3 C 19,4 C 79 % 1008,6 hPa 0,0 l/m 0 min 0 min 304 W/m 25,7 km/h (4 Bft) 95,74 %
26.08.2020 12:20 19,6 C 23,9 C 19,4 C 78 % 1008,6 hPa 0,0 l/m 0 min 0 min 304 W/m 22,5 km/h (4 Bft) 95,65 %
26.08.2020 12:22 19,7 C 22,8 C 18,9 C 78 % 1008,6 hPa 0,0 l/m 0 min 0 min 304 W/m 25,7 km/h (4 Bft) 95,74 %
26.08.2020 12:24 19,8 C 22,8 C 18,9 C 78 % 1008,5 hPa 0,0 l/m 0 min 0 min 304 W/m 29,0 km/h (5 Bft) 95,74 %
26.08.2020 12:26 19,8 C 21,7 C 18,9 C 77 % 1008,6 hPa 0,0 l/m 0 min 0 min 317 W/m 32,2 km/h (5 Bft) 91,49 %
26.08.2020 12:28 19,8 C 23,3 C 18,9 C 77 % 1008,7 hPa 0,0 l/m 2 min 0 min 411 W/m 25,7 km/h (4 Bft) 95,74 %
26.08.2020 12:30 19,8 C 23,3 C 19,4 C 78 % 1008,7 hPa 0,0 l/m 2 min 0 min 411 W/m 22,5 km/h (4 Bft) 93,62 %
26.08.2020 12:32 19,9 C 22,8 C 19,4 C 78 % 1008,7 hPa 0,0 l/m 2 min 0 min 416 W/m 19,3 km/h (3 Bft) 95,65 %
26.08.2020 12:34 19,9 C 21,7 C 19,4 C 78 % 1008,8 hPa 0,0 l/m 2 min 0 min 489 W/m 29,0 km/h (5 Bft) 95,74 %
26.08.2020 12:36 20,0 C 23,3 C 20,0 C 77 % 1008,8 hPa 0,0 l/m 2 min 0 min 487 W/m 29,0 km/h (5 Bft) 93,62 %
26.08.2020 12:38 20,1 C 22,2 C 19,4 C 77 % 1008,9 hPa 0,0 l/m 2 min 0 min 468 W/m 29,0 km/h (5 Bft) 95,74 %
26.08.2020 12:40 20,1 C 21,7 C 19,4 C 77 % 1008,8 hPa 0,0 l/m 2 min 0 min 403 W/m 22,5 km/h (4 Bft) 93,62 %
26.08.2020 12:42 20,1 C 22,2 C 19,4 C 77 % 1008,9 hPa 0,0 l/m 2 min 0 min 424 W/m 19,3 km/h (3 Bft) 95,74 %
26.08.2020 12:44 20,1 C 23,9 C 20,0 C 77 % 1008,9 hPa 0,0 l/m 2 min 0 min 539 W/m 29,0 km/h (5 Bft) 93,48 %
26.08.2020 12:46 20,3 C 24,4 C 20,6 C 76 % 1008,8 hPa 0,0 l/m 2 min 0 min 743 W/m 29,0 km/h (5 Bft) 93,62 %
26.08.2020 12:48 20,4 C 25,0 C 20,6 C 76 % 1008,9 hPa 0,0 l/m 2 min 0 min 744 W/m 22,5 km/h (4 Bft) 95,74 %
26.08.2020 12:50 20,6 C 25,6 C 20,6 C 76 % 1009,1 hPa 0,0 l/m 2 min 0 min 745 W/m 32,2 km/h (5 Bft) 93,62 %
26.08.2020 12:52 20,7 C 23,9 C 20,6 C 75 % 1008,9 hPa 0,0 l/m 2 min 0 min 746 W/m 35,4 km/h (5 Bft) 95,74 %
26.08.2020 12:54 20,7 C 23,3 C 20,0 C 74 % 1009,0 hPa 0,0 l/m 2 min 0 min 550 W/m 32,2 km/h (5 Bft) 95,74 %
26.08.2020 12:56 20,7 C 22,8 C 20,0 C 74 % 1009,0 hPa 0,0 l/m 2 min 0 min 503 W/m 29,0 km/h (5 Bft) 93,48 %
26.08.2020 12:58 20,7 C 22,2 C 20,0 C 74 % 1009,0 hPa 0,0 l/m 2 min 0 min 475 W/m 29,0 km/h (5 Bft) 97,87 %
26.08.2020 13:00 20,7 C 21,7 C 20,0 C 73 % 1009,2 hPa 0,0 l/m 2 min 0 min 544 W/m 29,0 km/h (5 Bft) 95,74 %
26.08.2020 13:02 20,6 C 21,1 C 20,0 C 74 % 1009,1 hPa 0,0 l/m 0 min 0 min 350 W/m 25,7 km/h (4 Bft) 95,74 %
26.08.2020 13:04 20,6 C 20,6 C 19,4 C 74 % 1009,1 hPa 0,0 l/m 0 min 0 min 232 W/m 29,0 km/h (5 Bft) 97,87 %
26.08.2020 13:06 20,4 C 20,0 C 18,9 C 74 % 1009,1 hPa 0,0 l/m 0 min 0 min 207 W/m 35,4 km/h (5 Bft) 97,87 %
26.08.2020 13:08 20,4 C 19,4 C 18,9 C 73 % 1009,2 hPa 0,0 l/m 0 min 0 min 161 W/m 22,5 km/h (4 Bft) 97,83 %
26.08.2020 13:10 20,3 C 19,4 C 18,9 C 73 % 1009,2 hPa 0,0 l/m 0 min 0 min 138 W/m 22,5 km/h (4 Bft) 95,74 %
26.08.2020 13:12 20,2 C 18,9 C 18,9 C 73 % 1009,4 hPa 0,0 l/m 0 min 0 min 127 W/m 22,5 km/h (4 Bft) 97,87 %
26.08.2020 13:14 20,1 C 18,9 C 18,3 C 73 % 1009,4 hPa 0,0 l/m 0 min 0 min 105 W/m 29,0 km/h (5 Bft) 97,87 %
26.08.2020 13:16 19,9 C 18,9 C 18,3 C 73 % 1009,4 hPa 0,0 l/m 0 min 0 min 90 W/m 22,5 km/h (4 Bft) 97,87 %
26.08.2020 13:18 19,8 C 18,9 C 18,3 C 73 % 1009,4 hPa 0,0 l/m 0 min 0 min 96 W/m 16,1 km/h (3 Bft) 97,83 %
26.08.2020 13:20 19,7 C 18,9 C 18,3 C 74 % 1009,4 hPa 0,0 l/m 0 min 0 min 132 W/m 16,1 km/h (3 Bft) 97,87 %
26.08.2020 13:22 19,6 C 18,3 C 18,3 C 74 % 1009,6 hPa 0,0 l/m 0 min 0 min 161 W/m 41,8 km/h (6 Bft) 97,87 %
26.08.2020 13:24 19,5 C 18,9 C 18,3 C 73 % 1009,6 hPa 0,0 l/m 0 min 0 min 135 W/m 35,4 km/h (5 Bft) 97,87 %
26.08.2020 13:26 19,4 C 18,3 C 18,3 C 73 % 1009,5 hPa 0,0 l/m 0 min 0 min 123 W/m 35,4 km/h (5 Bft) 97,87 %
26.08.2020 13:28 19,3 C 18,3 C 18,3 C 74 % 1009,6 hPa 0,0 l/m 0 min 0 min 124 W/m 22,5 km/h (4 Bft) 93,62 %
26.08.2020 13:30 19,3 C 18,3 C 17,8 C 74 % 1009,7 hPa 0,0 l/m 0 min 0 min 85 W/m 22,5 km/h (4 Bft) 97,87 %
26.08.2020 13:32 19,2 C 18,3 C 17,8 C 74 % 1009,7 hPa 0,0 l/m 0 min 0 min 96 W/m 25,7 km/h (4 Bft) 97,83 %
26.08.2020 13:34 19,1 C 18,3 C 17,8 C 74 % 1009,6 hPa 0,0 l/m 0 min 0 min 117 W/m 29,0 km/h (5 Bft) 97,87 %
26.08.2020 13:36 19,1 C 18,3 C 17,8 C 74 % 1009,9 hPa 0,0 l/m 0 min 0 min 84 W/m 16,1 km/h (3 Bft) 97,87 %
26.08.2020 13:38 19,0 C 18,3 C 17,8 C 75 % 1009,9 hPa 0,0 l/m 0 min 0 min 77 W/m 22,5 km/h (4 Bft) 97,87 %
26.08.2020 13:40 19,0 C 17,8 C 17,8 C 75 % 1009,9 hPa 0,0 l/m 0 min 2 min 84 W/m 32,2 km/h (5 Bft) 97,87 %
26.08.2020 13:42 18,9 C 18,3 C 17,8 C 76 % 1009,9 hPa 0,0 l/m 0 min 2 min 162 W/m 12,9 km/h (3 Bft) 97,83 %
26.08.2020 13:44 18,9 C 18,9 C 17,8 C 76 % 1009,9 hPa 0,0 l/m 0 min 0 min 237 W/m 19,3 km/h (3 Bft) 97,87 %
26.08.2020 13:46 19,0 C 18,9 C 18,3 C 76 % 1009,9 hPa 0,0 l/m 0 min 0 min 248 W/m 22,5 km/h (4 Bft) 97,87 %
26.08.2020 13:48 19,0 C 19,4 C 18,3 C 75 % 1010,0 hPa 0,0 l/m 0 min 0 min 258 W/m 25,7 km/h (4 Bft) 97,87 %
26.08.2020 13:50 19,0 C 19,4 C 18,3 C 75 % 1010,0 hPa 0,0 l/m 0 min 0 min 245 W/m 41,8 km/h (6 Bft) 97,87 %
26.08.2020 13:52 19,1 C 19,4 C 18,3 C 74 % 1010,0 hPa 0,0 l/m 0 min 0 min 227 W/m 25,7 km/h (4 Bft) 97,87 %
26.08.2020 13:54 19,1 C 19,4 C 18,3 C 74 % 1010,0 hPa 0,0 l/m 0 min 0 min 226 W/m 35,4 km/h (5 Bft) 100,00 %
26.08.2020 13:56 19,1 C 19,4 C 18,3 C 73 % 1010,1 hPa 0,0 l/m 0 min 0 min 266 W/m 29,0 km/h (5 Bft) 100,00 %
26.08.2020 13:58 19,1 C 19,4 C 18,3 C 73 % 1010,1 hPa 0,0 l/m 0 min 0 min 232 W/m 29,0 km/h (5 Bft) 100,00 %
26.08.2020 14:00 19,2 C 19,4 C 18,9 C 73 % 1010,1 hPa 0,0 l/m 0 min 0 min 234 W/m 22,5 km/h (4 Bft) 100,00 %
26.08.2020 14:02 19,2 C 19,4 C 18,9 C 73 % 1010,2 hPa 0,0 l/m 0 min 0 min 279 W/m 22,5 km/h (4 Bft) 97,87 %
26.08.2020 14:04 19,2 C 20,0 C 18,9 C 74 % 1010,2 hPa 0,0 l/m 0 min 0 min 268 W/m 22,5 km/h (4 Bft) 100,00 %
26.08.2020 14:06 19,3 C 20,0 C 18,9 C 74 % 1010,3 hPa 0,0 l/m 0 min 0 min 217 W/m 19,3 km/h (3 Bft) 100,00 %
26.08.2020 14:08 19,3 C 19,4 C 18,9 C 73 % 1010,3 hPa 0,0 l/m 0 min 0 min 148 W/m 22,5 km/h (4 Bft) 100,00 %
26.08.2020 14:10 19,3 C 18,9 C 18,3 C 73 % 1010,4 hPa 0,0 l/m 0 min 0 min 117 W/m 22,5 km/h (4 Bft) 97,87 %
26.08.2020 14:12 19,3 C 18,9 C 18,3 C 73 % 1010,6 hPa 0,0 l/m 0 min 0 min 136 W/m 35,4 km/h (5 Bft) 100,00 %
26.08.2020 14:14 19,3 C 18,9 C 18,3 C 72 % 1010,5 hPa 0,0 l/m 0 min 0 min 139 W/m 35,4 km/h (5 Bft) 100,00 %
26.08.2020 14:16 19,2 C 18,9 C 18,3 C 72 % 1010,5 hPa 0,0 l/m 0 min 0 min 152 W/m 25,7 km/h (4 Bft) 100,00 %
26.08.2020 14:18 19,2 C 18,9 C 18,3 C 72 % 1010,6 hPa 0,0 l/m 0 min 0 min 162 W/m 25,7 km/h (4 Bft) 100,00 %
26.08.2020 14:20 19,2 C 18,9 C 18,3 C 72 % 1010,7 hPa 0,0 l/m 0 min 0 min 167 W/m 25,7 km/h (4 Bft) 100,00 %
26.08.2020 14:22 19,2 C 18,9 C 18,3 C 72 % 1010,7 hPa 0,0 l/m 0 min 0 min 176 W/m 32,2 km/h (5 Bft) 100,00 %
26.08.2020 14:24 19,1 C 18,9 C 18,3 C 73 % 1010,9 hPa 0,0 l/m 0 min 0 min 146 W/m 19,3 km/h (3 Bft) 100,00 %
26.08.2020 14:26 19,1 C 18,9 C 18,3 C 73 % 1010,9 hPa 0,0 l/m 0 min 0 min 119 W/m 16,1 km/h (3 Bft) 100,00 %
26.08.2020 14:28 19,1 C 18,9 C 18,3 C 72 % 1010,9 hPa 0,0 l/m 0 min 0 min 140 W/m 22,5 km/h (4 Bft) 100,00 %
26.08.2020 14:30 19,1 C 18,9 C 17,8 C 73 % 1011,1 hPa 0,0 l/m 0 min 0 min 139 W/m 29,0 km/h (5 Bft) 100,00 %
26.08.2020 14:32 19,1 C 18,3 C 17,8 C 72 % 1011,0 hPa 0,0 l/m 0 min 0 min 154 W/m 32,2 km/h (5 Bft) 100,00 %
26.08.2020 14:34 19,0 C 18,9 C 17,8 C 72 % 1010,9 hPa 0,0 l/m 0 min 0 min 159 W/m 25,7 km/h (4 Bft) 100,00 %
26.08.2020 14:36 19,0 C 18,9 C 17,8 C 72 % 1011,1 hPa 0,0 l/m 0 min 0 min 166 W/m 25,7 km/h (4 Bft) 97,87 %
26.08.2020 14:38 19,0 C 18,9 C 18,3 C 73 % 1011,0 hPa 0,0 l/m 0 min 0 min 189 W/m 25,7 km/h (4 Bft) 100,00 %
26.08.2020 14:40 18,9 C 18,9 C 17,8 C 73 % 1011,1 hPa 0,0 l/m 0 min 0 min 167 W/m 29,0 km/h (5 Bft) 100,00 %
26.08.2020 14:42 18,9 C 18,3 C 17,8 C 73 % 1011,2 hPa 0,0 l/m 0 min 0 min 140 W/m 25,7 km/h (4 Bft) 100,00 %
26.08.2020 14:44 18,9 C 18,3 C 17,8 C 73 % 1011,2 hPa 0,0 l/m 0 min 0 min 143 W/m 19,3 km/h (3 Bft) 100,00 %
26.08.2020 14:46 18,9 C 18,3 C 17,8 C 73 % 1011,2 hPa 0,0 l/m 0 min 0 min 128 W/m 19,3 km/h (3 Bft) 95,74 %
26.08.2020 14:48 18,9 C 18,3 C 17,8 C 73 % 1011,3 hPa 0,0 l/m 0 min 0 min 132 W/m 25,7 km/h (4 Bft) 97,87 %
26.08.2020 14:50 18,8 C 18,3 C 17,8 C 73 % 1011,2 hPa 0,0 l/m 0 min 0 min 134 W/m 22,5 km/h (4 Bft) 97,87 %
26.08.2020 14:52 18,8 C 18,9 C 17,8 C 73 % 1011,3 hPa 0,0 l/m 0 min 0 min 164 W/m 22,5 km/h (4 Bft) 97,83 %
26.08.2020 14:54 18,8 C 18,9 C 18,3 C 73 % 1011,3 hPa 0,0 l/m 0 min 0 min 201 W/m 19,3 km/h (3 Bft) 97,87 %
26.08.2020 14:56 18,9 C 18,9 C 18,3 C 73 % 1011,3 hPa 0,0 l/m 0 min 0 min 195 W/m 35,4 km/h (5 Bft) 97,87 %
26.08.2020 14:58 18,9 C 18,9 C 17,8 C 73 % 1011,4 hPa 0,0 l/m 0 min 0 min 119 W/m 22,5 km/h (4 Bft) 97,87 %
26.08.2020 15:00 18,9 C 18,9 C 17,8 C 73 % 1011,4 hPa 0,0 l/m 0 min 0 min 132 W/m 25,7 km/h (4 Bft) 97,87 %
26.08.2020 15:02 18,9 C 18,3 C 17,8 C 73 % 1011,6 hPa 0,0 l/m 0 min 0 min 120 W/m 19,3 km/h (3 Bft) 95,74 %
26.08.2020 15:04 18,9 C 18,3 C 17,8 C 73 % 1011,6 hPa 0,0 l/m 0 min 0 min 96 W/m 25,7 km/h (4 Bft) 95,65 %
26.08.2020 15:06 18,8 C 18,3 C 17,8 C 73 % 1011,6 hPa 0,0 l/m 0 min 0 min 90 W/m 22,5 km/h (4 Bft) 97,87 %
26.08.2020 15:08 18,8 C 18,3 C 17,8 C 73 % 1011,7 hPa 0,0 l/m 0 min 0 min 83 W/m 19,3 km/h (3 Bft) 97,87 %
26.08.2020 15:10 18,8 C 18,3 C 17,8 C 73 % 1011,8 hPa 0,0 l/m 0 min 0 min 93 W/m 25,7 km/h (4 Bft) 97,87 %
26.08.2020 15:12 18,8 C 18,3 C 17,8 C 73 % 1011,7 hPa 0,0 l/m 0 min 0 min 119 W/m 22,5 km/h (4 Bft) 97,87 %
26.08.2020 15:14 18,8 C 18,3 C 17,8 C 73 % 1011,8 hPa 0,0 l/m 0 min 0 min 140 W/m 22,5 km/h (4 Bft) 93,62 %
26.08.2020 15:16 18,8 C 18,3 C 17,8 C 73 % 1011,8 hPa 0,0 l/m 0 min 0 min 161 W/m 22,5 km/h (4 Bft) 93,48 %
26.08.2020 15:18 18,8 C 18,3 C 17,8 C 73 % 1011,9 hPa 0,0 l/m 0 min 0 min 172 W/m 41,8 km/h (6 Bft) 95,74 %
26.08.2020 15:20 18,8 C 18,3 C 17,8 C 73 % 1011,9 hPa 0,0 l/m 0 min 0 min 153 W/m 25,7 km/h (4 Bft) 93,62 %
26.08.2020 15:22 18,8 C 18,3 C 17,8 C 73 % 1012,0 hPa 0,0 l/m 0 min 0 min 131 W/m 25,7 km/h (4 Bft) 95,74 %
26.08.2020 15:24 18,8 C 18,3 C 17,8 C 73 % 1012,0 hPa 0,0 l/m 0 min 0 min 131 W/m 29,0 km/h (5 Bft) 95,74 %
26.08.2020 15:26 18,7 C 18,3 C 17,8 C 73 % 1011,9 hPa 0,0 l/m 0 min 0 min 167 W/m 22,5 km/h (4 Bft) 95,74 %
26.08.2020 15:28 18,7 C 18,3 C 17,8 C 73 % 1012,0 hPa 0,0 l/m 0 min 0 min 152 W/m 19,3 km/h (3 Bft) 95,65 %
26.08.2020 15:30 18,7 C 18,3 C 17,8 C 74 % 1012,0 hPa 0,0 l/m 0 min 0 min 168 W/m 25,7 km/h (4 Bft) 95,74 %
26.08.2020 15:32 18,7 C 18,9 C 17,8 C 74 % 1012,0 hPa 0,0 l/m 0 min 0 min 200 W/m 22,5 km/h (4 Bft) 97,87 %
26.08.2020 15:34 18,7 C 18,9 C 18,3 C 74 % 1012,1 hPa 0,0 l/m 0 min 0 min 223 W/m 22,5 km/h (4 Bft) 97,87 %
26.08.2020 15:36 18,8 C 18,9 C 18,3 C 74 % 1012,0 hPa 0,0 l/m 0 min 0 min 205 W/m 16,1 km/h (3 Bft) 95,74 %
26.08.2020 15:38 18,8 C 18,9 C 18,3 C 74 % 1012,0 hPa 0,0 l/m 0 min 0 min 227 W/m 32,2 km/h (5 Bft) 97,87 %
26.08.2020 15:40 18,8 C 18,9 C 18,3 C 74 % 1012,1 hPa 0,0 l/m 0 min 0 min 198 W/m 25,7 km/h (4 Bft) 97,83 %
26.08.2020 15:42 18,8 C 18,9 C 18,3 C 74 % 1012,2 hPa 0,0 l/m 0 min 0 min 169 W/m 29,0 km/h (5 Bft) 95,74 %
26.08.2020 15:44 18,8 C 18,9 C 17,8 C 74 % 1012,0 hPa 0,0 l/m 0 min 0 min 136 W/m 25,7 km/h (4 Bft) 95,74 %
26.08.2020 15:46 18,8 C 18,9 C 17,8 C 73 % 1012,1 hPa 0,0 l/m 0 min 0 min 176 W/m 25,7 km/h (4 Bft) 97,87 %
26.08.2020 15:48 18,8 C 18,3 C 17,8 C 73 % 1012,1 hPa 0,0 l/m 0 min 0 min 157 W/m 25,7 km/h (4 Bft) 97,87 %
26.08.2020 15:50 18,8 C 18,9 C 17,8 C 74 % 1012,1 hPa 0,0 l/m 0 min 0 min 170 W/m 19,3 km/h (3 Bft) 95,65 %
26.08.2020 15:52 18,8 C 18,9 C 17,8 C 73 % 1012,2 hPa 0,0 l/m 0 min 0 min 158 W/m 25,7 km/h (4 Bft) 97,87 %
26.08.2020 15:54 18,8 C 18,3 C 17,8 C 73 % 1012,2 hPa 0,0 l/m 0 min 0 min 129 W/m 38,6 km/h (5 Bft) 95,74 %
26.08.2020 15:56 18,8 C 18,3 C 17,8 C 73 % 1012,2 hPa 0,0 l/m 0 min 0 min 111 W/m 41,8 km/h (6 Bft) 95,74 %
26.08.2020 15:58 18,8 C 18,3 C 17,8 C 73 % 1012,2 hPa 0,0 l/m 0 min 0 min 117 W/m 29,0 km/h (5 Bft) 97,87 %
26.08.2020 16:00 18,7 C 18,3 C 17,8 C 74 % 1012,3 hPa 0,0 l/m 0 min 0 min 127 W/m 22,5 km/h (4 Bft) 97,87 %
26.08.2020 16:02 18,7 C 18,3 C 17,8 C 74 % 1012,3 hPa 0,0 l/m 0 min 0 min 97 W/m 19,3 km/h (3 Bft) 93,48 %
26.08.2020 16:04 18,7 C 18,3 C 17,8 C 74 % 1012,3 hPa 0,0 l/m 0 min 0 min 112 W/m 29,0 km/h (5 Bft) 93,62 %
26.08.2020 16:06 18,7 C 18,3 C 17,8 C 73 % 1012,4 hPa 0,0 l/m 0 min 0 min 123 W/m 35,4 km/h (5 Bft) 97,87 %
26.08.2020 16:08 18,7 C 18,3 C 17,8 C 74 % 1012,5 hPa 0,0 l/m 0 min 0 min 131 W/m 22,5 km/h (4 Bft) 97,87 %
26.08.2020 16:10 18,7 C 18,3 C 17,8 C 74 % 1012,5 hPa 0,0 l/m 0 min 0 min 132 W/m 22,5 km/h (4 Bft) 100,00 %
26.08.2020 16:12 18,7 C 18,3 C 17,8 C 73 % 1012,7 hPa 0,0 l/m 0 min 0 min 132 W/m 22,5 km/h (4 Bft) 95,74 %
26.08.2020 16:14 18,7 C 18,3 C 17,8 C 74 % 1012,5 hPa 0,0 l/m 0 min 0 min 139 W/m 32,2 km/h (5 Bft) 93,48 %
26.08.2020 16:16 18,7 C 18,3 C 17,8 C 74 % 1012,6 hPa 0,0 l/m 0 min 0 min 159 W/m 25,7 km/h (4 Bft) 97,87 %
26.08.2020 16:18 18,7 C 18,3 C 17,8 C 74 % 1012,5 hPa 0,0 l/m 0 min 0 min 160 W/m 19,3 km/h (3 Bft) 97,87 %
26.08.2020 16:20 18,7 C 18,9 C 17,8 C 74 % 1012,6 hPa 0,0 l/m 0 min 0 min 152 W/m 16,1 km/h (3 Bft) 97,87 %
26.08.2020 16:22 18,7 C 18,3 C 17,8 C 75 % 1012,6 hPa 0,0 l/m 0 min 0 min 139 W/m 16,1 km/h (3 Bft) 95,74 %
26.08.2020 16:24 18,7 C 18,3 C 17,8 C 74 % 1012,6 hPa 0,0 l/m 0 min 0 min 106 W/m 19,3 km/h (3 Bft) 95,74 %
26.08.2020 16:26 18,7 C 18,3 C 17,8 C 74 % 1012,6 hPa 0,0 l/m 0 min 0 min 108 W/m 25,7 km/h (4 Bft) 97,83 %
26.08.2020 16:28 18,7 C 18,3 C 17,8 C 74 % 1012,7 hPa 0,0 l/m 0 min 0 min 119 W/m 25,7 km/h (4 Bft) 97,87 %
26.08.2020 16:30 18,7 C 18,3 C 17,8 C 73 % 1013,3 hPa 0,0 l/m 0 min 0 min 113 W/m 32,2 km/h (5 Bft) 97,87 %
26.08.2020 16:32 18,7 C 18,3 C 17,8 C 74 % 1012,9 hPa 0,0 l/m 0 min 0 min 98 W/m 29,0 km/h (5 Bft) 93,62 %
26.08.2020 16:34 18,7 C 18,3 C 17,8 C 74 % 1012,9 hPa 0,0 l/m 0 min 0 min 91 W/m 25,7 km/h (4 Bft) 97,87 %
26.08.2020 16:36 18,7 C 18,3 C 17,8 C 74 % 1013,0 hPa 0,0 l/m 0 min 0 min 109 W/m 22,5 km/h (4 Bft) 97,83 %
26.08.2020 16:38 18,7 C 18,3 C 17,8 C 74 % 1012,8 hPa 0,0 l/m 0 min 0 min 115 W/m 16,1 km/h (3 Bft) 97,87 %
26.08.2020 16:40 18,7 C 18,3 C 17,8 C 74 % 1013,0 hPa 0,0 l/m 0 min 0 min 110 W/m 25,7 km/h (4 Bft) 97,87 %
26.08.2020 16:42 18,7 C 18,3 C 17,8 C 74 % 1012,8 hPa 0,0 l/m 0 min 0 min 113 W/m 22,5 km/h (4 Bft) 97,87 %
26.08.2020 16:44 18,7 C 18,3 C 17,8 C 74 % 1012,9 hPa 0,0 l/m 0 min 0 min 117 W/m 16,1 km/h (3 Bft) 96,43 %
26.08.2020 16:46 18,7 C 18,3 C 17,8 C 74 % 1013,0 hPa 0,0 l/m 0 min 0 min 126 W/m 32,2 km/h (5 Bft) 97,87 %
26.08.2020 16:48 18,7 C 18,3 C 17,8 C 74 % 1013,0 hPa 0,0 l/m 0 min 0 min 114 W/m 22,5 km/h (4 Bft) 97,87 %
26.08.2020 16:50 18,7 C 18,3 C 17,8 C 74 % 1013,2 hPa 0,0 l/m 0 min 0 min 93 W/m 22,5 km/h (4 Bft) 97,87 %
26.08.2020 16:52 18,7 C 18,3 C 17,8 C 74 % 1013,2 hPa 0,0 l/m 0 min 0 min 113 W/m 29,0 km/h (5 Bft) 95,65 %
26.08.2020 16:54 18,7 C 18,3 C 17,8 C 74 % 1013,0 hPa 0,0 l/m 0 min 0 min 132 W/m 16,1 km/h (3 Bft) 97,87 %
26.08.2020 16:56 18,8 C 18,3 C 17,8 C 74 % 1013,1 hPa 0,0 l/m 0 min 0 min 132 W/m 22,5 km/h (4 Bft) 97,87 %
26.08.2020 16:58 18,8 C 18,3 C 17,8 C 74 % 1013,3 hPa 0,0 l/m 0 min 0 min 130 W/m 25,7 km/h (4 Bft) 97,87 %
26.08.2020 17:00 18,8 C 18,9 C 17,8 C 74 % 1013,1 hPa 0,0 l/m 0 min 0 min 135 W/m 22,5 km/h (4 Bft) 97,87 %
26.08.2020 17:02 18,8 C 18,9 C 17,8 C 74 % 1013,1 hPa 0,0 l/m 0 min 0 min 149 W/m 22,5 km/h (4 Bft) 95,74 %
26.08.2020 17:04 18,8 C 18,9 C 17,8 C 74 % 1013,0 hPa 0,0 l/m 0 min 0 min 162 W/m 22,5 km/h (4 Bft) 97,83 %
26.08.2020 17:06 18,9 C 18,9 C 18,3 C 74 % 1013,2 hPa 0,0 l/m 0 min 0 min 161 W/m 16,1 km/h (3 Bft) 97,87 %
26.08.2020 17:08 18,9 C 18,9 C 18,3 C 74 % 1013,2 hPa 0,0 l/m 0 min 0 min 171 W/m 22,5 km/h (4 Bft) 97,87 %
26.08.2020 17:10 19,0 C 18,9 C 18,3 C 74 % 1013,2 hPa 0,0 l/m 0 min 0 min 178 W/m 19,3 km/h (3 Bft) 97,87 %
26.08.2020 17:12 19,0 C 18,9 C 18,3 C 74 % 1013,2 hPa 0,0 l/m 0 min 0 min 160 W/m 16,1 km/h (3 Bft) 97,87 %
26.08.2020 17:14 19,1 C 18,9 C 18,3 C 74 % 1013,3 hPa 0,0 l/m 0 min 0 min 137 W/m 22,5 km/h (4 Bft) 100,00 %
26.08.2020 17:16 19,1 C 18,9 C 18,3 C 74 % 1013,3 hPa 0,0 l/m 0 min 0 min 134 W/m 29,0 km/h (5 Bft) 100,00 %
26.08.2020 17:18 19,1 C 18,9 C 18,3 C 73 % 1013,6 hPa 0,0 l/m 0 min 0 min 139 W/m 19,3 km/h (3 Bft) 100,00 %
26.08.2020 17:20 19,1 C 18,9 C 18,3 C 74 % 1013,4 hPa 0,0 l/m 0 min 0 min 132 W/m 16,1 km/h (3 Bft) 100,00 %
26.08.2020 17:22 19,1 C 18,9 C 18,3 C 73 % 1013,3 hPa 0,0 l/m 0 min 0 min 123 W/m 29,0 km/h (5 Bft) 97,87 %
26.08.2020 17:24 19,1 C 18,9 C 18,3 C 73 % 1013,5 hPa 0,0 l/m 0 min 0 min 96 W/m 16,1 km/h (3 Bft) 97,87 %
26.08.2020 17:26 19,1 C 18,9 C 18,3 C 73 % 1013,5 hPa 0,0 l/m 0 min 0 min 87 W/m 35,4 km/h (5 Bft) 97,87 %
26.08.2020 17:28 19,2 C 18,9 C 17,8 C 73 % 1013,5 hPa 0,0 l/m 0 min 0 min 88 W/m 35,4 km/h (5 Bft) 97,83 %
26.08.2020 17:30 19,2 C 18,9 C 17,8 C 73 % 1013,5 hPa 0,0 l/m 0 min 0 min 85 W/m 22,5 km/h (4 Bft) 97,87 %
26.08.2020 17:32 19,1 C 18,9 C 17,8 C 73 % 1013,4 hPa 0,0 l/m 0 min 0 min 99 W/m 48,3 km/h (6 Bft) 97,87 %
26.08.2020 17:34 19,1 C 18,9 C 17,8 C 73 % 1013,5 hPa 0,0 l/m 0 min 0 min 122 W/m 41,8 km/h (6 Bft) 97,87 %
26.08.2020 17:36 19,1 C 18,9 C 18,3 C 73 % 1013,5 hPa 0,0 l/m 0 min 0 min 118 W/m 29,0 km/h (5 Bft) 95,74 %
26.08.2020 17:38 19,1 C 18,9 C 18,3 C 73 % 1013,4 hPa 0,0 l/m 0 min 0 min 109 W/m 35,4 km/h (5 Bft) 95,74 %
26.08.2020 17:40 19,1 C 18,9 C 17,8 C 73 % 1013,5 hPa 0,0 l/m 0 min 0 min 79 W/m 22,5 km/h (4 Bft) 97,83 %
26.08.2020 17:42 19,1 C 18,9 C 17,8 C 73 % 1013,5 hPa 0,0 l/m 0 min 0 min 90 W/m 25,7 km/h (4 Bft) 95,74 %
26.08.2020 17:44 19,1 C 18,3 C 17,8 C 73 % 1013,6 hPa 0,0 l/m 0 min 0 min 75 W/m 19,3 km/h (3 Bft) 97,87 %
26.08.2020 17:46 19,1 C 18,3 C 17,8 C 73 % 1013,6 hPa 0,0 l/m 0 min 0 min 69 W/m 16,1 km/h (3 Bft) 97,87 %
26.08.2020 17:48 19,1 C 18,3 C 17,8 C 73 % 1013,6 hPa 0,0 l/m 0 min 0 min 83 W/m 32,2 km/h (5 Bft) 97,87 %
26.08.2020 17:50 19,1 C 18,3 C 17,8 C 73 % 1013,6 hPa 0,0 l/m 0 min 0 min 92 W/m 16,1 km/h (3 Bft) 97,83 %
26.08.2020 17:52 19,1 C 18,3 C 17,8 C 73 % 1013,6 hPa 0,0 l/m 0 min 0 min 93 W/m 16,1 km/h (3 Bft) 95,74 %
26.08.2020 17:54 19,1 C 18,3 C 17,8 C 74 % 1013,7 hPa 0,0 l/m 0 min 0 min 81 W/m 16,1 km/h (3 Bft) 97,87 %
26.08.2020 17:56 19,1 C 18,3 C 17,8 C 74 % 1013,6 hPa 0,0 l/m 0 min 0 min 93 W/m 22,5 km/h (4 Bft) 95,74 %
26.08.2020 17:58 19,0 C 18,3 C 17,8 C 74 % 1013,7 hPa 0,0 l/m 0 min 0 min 86 W/m 19,3 km/h (3 Bft) 95,74 %
26.08.2020 18:00 19,0 C 18,3 C 17,8 C 74 % 1013,8 hPa 0,0 l/m 0 min 0 min 61 W/m 19,3 km/h (3 Bft) 97,87 %
26.08.2020 18:02 18,9 C 18,3 C 17,8 C 74 % 1013,8 hPa 0,0 l/m 0 min 0 min 47 W/m 19,3 km/h (3 Bft) 97,87 %
26.08.2020 18:04 18,9 C 17,8 C 17,8 C 74 % 1013,9 hPa 0,0 l/m 0 min 0 min 53 W/m 19,3 km/h (3 Bft) 95,65 %
26.08.2020 18:08 18,8 C 17,8 C 17,8 C 75 % 1014,0 hPa 0,0 l/m 0 min 0 min 58 W/m 25,7 km/h (4 Bft) 98,94 %
26.08.2020 18:10 18,8 C 17,8 C 17,8 C 74 % 1014,0 hPa 0,0 l/m 0 min 0 min 66 W/m 25,7 km/h (4 Bft) 100,00 %
26.08.2020 18:12 18,8 C 17,8 C 17,8 C 74 % 1014,0 hPa 0,0 l/m 0 min 0 min 64 W/m 25,7 km/h (4 Bft) 97,87 %
26.08.2020 18:14 18,7 C 17,8 C 17,8 C 75 % 1014,1 hPa 0,0 l/m 0 min 0 min 58 W/m 16,1 km/h (3 Bft) 100,00 %
26.08.2020 18:16 18,7 C 17,8 C 17,8 C 75 % 1014,0 hPa 0,0 l/m 0 min 0 min 53 W/m 25,7 km/h (4 Bft) 97,87 %
26.08.2020 18:18 18,7 C 17,8 C 17,8 C 75 % 1014,0 hPa 0,0 l/m 0 min 0 min 45 W/m 22,5 km/h (4 Bft) 100,00 %
26.08.2020 18:20 18,7 C 17,8 C 17,2 C 75 % 1014,1 hPa 0,0 l/m 0 min 0 min 38 W/m 22,5 km/h (4 Bft) 100,00 %
26.08.2020 18:22 18,7 C 17,8 C 17,2 C 75 % 1014,1 hPa 0,0 l/m 0 min 0 min 43 W/m 25,7 km/h (4 Bft) 100,00 %
26.08.2020 18:24 18,7 C 17,8 C 17,2 C 75 % 1014,2 hPa 0,0 l/m 0 min 0 min 37 W/m 12,9 km/h (3 Bft) 100,00 %
26.08.2020 18:26 18,6 C 17,8 C 17,2 C 76 % 1014,4 hPa 0,0 l/m 0 min 0 min 35 W/m 9,7 km/h (2 Bft) 97,83 %
26.08.2020 18:28 18,6 C 17,8 C 17,2 C 76 % 1014,4 hPa 0,0 l/m 0 min 0 min 32 W/m 29,0 km/h (5 Bft) 100,00 %
26.08.2020 18:30 18,6 C 17,8 C 17,2 C 76 % 1014,4 hPa 0,0 l/m 0 min 0 min 30 W/m 29,0 km/h (5 Bft) 97,87 %
26.08.2020 18:32 18,6 C 17,2 C 17,2 C 76 % 1014,5 hPa 0,0 l/m 0 min 0 min 30 W/m 19,3 km/h (3 Bft) 97,87 %
26.08.2020 18:34 18,5 C 17,2 C 17,2 C 77 % 1014,6 hPa 0,0 l/m 0 min 0 min 29 W/m 19,3 km/h (3 Bft) 95,74 %
26.08.2020 18:36 18,4 C 17,2 C 17,2 C 77 % 1014,5 hPa 0,0 l/m 0 min 0 min 30 W/m 25,7 km/h (4 Bft) 97,87 %
26.08.2020 18:38 18,4 C 17,2 C 17,2 C 77 % 1014,7 hPa 0,0 l/m 0 min 0 min 36 W/m 19,3 km/h (3 Bft) 95,65 %
26.08.2020 18:40 18,3 C 16,7 C 16,7 C 78 % 1014,8 hPa 0,0 l/m 0 min 0 min 27 W/m 19,3 km/h (3 Bft) 97,87 %
26.08.2020 18:42 18,3 C 16,7 C 16,7 C 79 % 1014,8 hPa 0,0 l/m 0 min 0 min 24 W/m 22,5 km/h (4 Bft) 97,87 %
26.08.2020 18:44 18,2 C 16,7 C 16,7 C 79 % 1014,8 hPa 0,0 l/m 0 min 0 min 28 W/m 19,3 km/h (3 Bft) 95,74 %
26.08.2020 18:46 18,2 C 16,1 C 16,7 C 79 % 1014,9 hPa 0,0 l/m 0 min 0 min 31 W/m 16,1 km/h (3 Bft) 97,30 %
26.08.2020 18:48 18,1 C 16,1 C 16,7 C 80 % 1015,1 hPa 0,0 l/m 0 min 0 min 26 W/m 25,7 km/h (4 Bft) 95,74 %
26.08.2020 18:50 18,1 C 16,1 C 16,1 C 81 % 1015,1 hPa 0,0 l/m 0 min 2 min 28 W/m 25,7 km/h (4 Bft) 97,87 %
26.08.2020 18:52 17,9 C 15,6 C 15,6 C 82 % 1015,1 hPa 0,0 l/m 0 min 2 min 31 W/m 16,1 km/h (3 Bft) 97,87 %
26.08.2020 18:54 17,8 C 15,0 C 15,6 C 83 % 1015,1 hPa 0,0 l/m 0 min 2 min 26 W/m 25,7 km/h (4 Bft) 95,74 %
26.08.2020 18:56 17,6 C 15,0 C 15,6 C 84 % 1015,0 hPa 0,0 l/m 0 min 2 min 25 W/m 19,3 km/h (3 Bft) 97,83 %
26.08.2020 18:58 17,6 C 15,0 C 15,6 C 85 % 1014,9 hPa 0,0 l/m 0 min 2 min 31 W/m 16,1 km/h (3 Bft) 97,87 %
26.08.2020 19:00 17,4 C 15,6 C 15,6 C 85 % 1014,9 hPa 0,0 l/m 0 min 0 min 34 W/m 19,3 km/h (3 Bft) 97,87 %
26.08.2020 19:02 17,3 C 15,6 C 15,6 C 85 % 1014,9 hPa 0,0 l/m 0 min 0 min 32 W/m 22,5 km/h (4 Bft) 95,74 %
26.08.2020 19:04 17,2 C 15,6 C 15,6 C 85 % 1015,1 hPa 0,0 l/m 0 min 0 min 26 W/m 12,9 km/h (3 Bft) 97,87 %
26.08.2020 19:06 17,2 C 16,1 C 15,6 C 85 % 1015,1 hPa 0,0 l/m 0 min 0 min 27 W/m 16,1 km/h (3 Bft) 97,87 %
26.08.2020 19:08 17,1 C 16,1 C 15,6 C 85 % 1015,1 hPa 0,0 l/m 0 min 0 min 37 W/m 9,7 km/h (2 Bft) 95,65 %
26.08.2020 19:10 17,1 C 16,1 C 16,1 C 85 % 1015,2 hPa 0,0 l/m 0 min 0 min 40 W/m 12,9 km/h (3 Bft) 95,74 %
26.08.2020 19:12 17,1 C 16,1 C 16,1 C 85 % 1015,2 hPa 0,0 l/m 0 min 0 min 39 W/m 12,9 km/h (3 Bft) 97,87 %
26.08.2020 19:14 17,1 C 16,1 C 16,1 C 86 % 1015,2 hPa 0,0 l/m 0 min 0 min 33 W/m 16,1 km/h (3 Bft) 93,62 %
26.08.2020 19:16 17,1 C 16,1 C 16,1 C 85 % 1015,3 hPa 0,0 l/m 0 min 0 min 27 W/m 12,9 km/h (3 Bft) 91,49 %
26.08.2020 19:18 17,1 C 16,1 C 16,1 C 85 % 1015,4 hPa 0,0 l/m 0 min 0 min 20 W/m 19,3 km/h (3 Bft) 95,74 %
26.08.2020 19:20 17,1 C 16,1 C 16,1 C 85 % 1015,3 hPa 0,0 l/m 0 min 0 min 19 W/m 25,7 km/h (4 Bft) 97,83 %
26.08.2020 19:22 17,1 C 15,6 C 16,1 C 85 % 1015,4 hPa 0,0 l/m 0 min 2 min 12 W/m 12,9 km/h (3 Bft) 97,87 %
26.08.2020 19:24 17,1 C 15,6 C 15,6 C 86 % 1015,5 hPa 0,0 l/m 0 min 2 min 10 W/m 9,7 km/h (2 Bft) 97,87 %
26.08.2020 19:26 17,1 C 15,0 C 15,6 C 86 % 1015,5 hPa 0,0 l/m 0 min 2 min 9 W/m 12,9 km/h (3 Bft) 97,87 %
26.08.2020 19:28 17,1 C 15,0 C 15,6 C 86 % 1015,6 hPa 0,0 l/m 0 min 2 min 9 W/m 12,9 km/h (3 Bft) 97,87 %
26.08.2020 19:30 17,0 C 14,4 C 15,6 C 87 % 1015,8 hPa 0,0 l/m 0 min 2 min 11 W/m 12,9 km/h (3 Bft) 93,62 %
26.08.2020 19:32 16,9 C 14,4 C 15,0 C 87 % 1015,8 hPa 0,0 l/m 0 min 2 min 14 W/m 16,1 km/h (3 Bft) 97,83 %
26.08.2020 19:34 16,9 C 14,4 C 15,0 C 88 % 1015,8 hPa 0,0 l/m 0 min 2 min 10 W/m 12,9 km/h (3 Bft) 97,87 %
26.08.2020 19:36 16,8 C 13,9 C 15,0 C 88 % 1015,8 hPa 0,0 l/m 0 min 2 min 11 W/m 9,7 km/h (2 Bft) 97,87 %
26.08.2020 19:38 16,8 C 13,9 C 15,0 C 89 % 1015,9 hPa 0,0 l/m 0 min 2 min 16 W/m 16,1 km/h (3 Bft) 95,74 %
26.08.2020 19:40 16,7 C 13,9 C 15,0 C 89 % 1015,8 hPa 0,0 l/m 0 min 0 min 23 W/m 9,7 km/h (2 Bft) 97,87 %
26.08.2020 19:42 16,7 C 13,9 C 14,4 C 90 % 1015,8 hPa 0,0 l/m 0 min 0 min 24 W/m 12,9 km/h (3 Bft) 97,87 %
26.08.2020 19:44 16,6 C 13,9 C 14,4 C 90 % 1015,8 hPa 0,0 l/m 0 min 0 min 18 W/m 3,2 km/h (1 Bft) 97,83 %
26.08.2020 19:46 16,5 C 13,9 C 14,4 C 90 % 1015,8 hPa 0,0 l/m 0 min 0 min 17 W/m 12,9 km/h (3 Bft) 97,87 %
26.08.2020 19:48 16,4 C 14,4 C 14,4 C 90 % 1015,8 hPa 0,0 l/m 0 min 0 min 16 W/m 9,7 km/h (2 Bft) 95,74 %
26.08.2020 19:50 16,4 C 14,4 C 14,4 C 91 % 1015,8 hPa 0,0 l/m 0 min 0 min 17 W/m 12,9 km/h (3 Bft) 97,87 %
26.08.2020 19:52 16,3 C 14,4 C 15,0 C 91 % 1015,9 hPa 0,2 l/m 0 min 0 min 19 W/m 12,9 km/h (3 Bft) 97,87 %
26.08.2020 19:54 16,3 C 14,4 C 15,0 C 91 % 1015,9 hPa 0,0 l/m 0 min 0 min 18 W/m 9,7 km/h (2 Bft) 97,87 %
26.08.2020 19:56 16,2 C 14,4 C 15,0 C 91 % 1015,9 hPa 0,0 l/m 0 min 0 min 13 W/m 9,7 km/h (2 Bft) 97,83 %
26.08.2020 19:58 16,2 C 14,4 C 15,0 C 91 % 1015,9 hPa 0,0 l/m 0 min 0 min 11 W/m 16,1 km/h (3 Bft) 97,87 %
26.08.2020 20:00 16,2 C 14,4 C 15,0 C 91 % 1015,9 hPa 0,0 l/m 0 min 0 min 9 W/m 12,9 km/h (3 Bft) 97,87 %
26.08.2020 20:02 16,1 C 14,4 C 15,0 C 91 % 1016,0 hPa 0,0 l/m 0 min 0 min 8 W/m 9,7 km/h (2 Bft) 95,74 %
26.08.2020 20:04 16,1 C 14,4 C 15,0 C 92 % 1016,0 hPa 0,0 l/m 0 min 0 min 7 W/m 19,3 km/h (3 Bft) 97,87 %
26.08.2020 20:06 16,1 C 14,4 C 15,0 C 92 % 1016,0 hPa 0,0 l/m 0 min 0 min 9 W/m 16,1 km/h (3 Bft) 93,48 %
26.08.2020 20:08 16,1 C 14,4 C 15,0 C 92 % 1016,1 hPa 0,0 l/m 0 min 0 min 9 W/m 9,7 km/h (2 Bft) 95,74 %
26.08.2020 20:10 16,1 C 14,4 C 15,0 C 92 % 1016,2 hPa 0,0 l/m 0 min 0 min 7 W/m 16,1 km/h (3 Bft) 95,74 %
26.08.2020 20:12 16,1 C 14,4 C 15,0 C 92 % 1016,1 hPa 0,0 l/m 0 min 0 min 5 W/m 6,4 km/h (2 Bft) 95,74 %
26.08.2020 20:14 16,1 C 14,4 C 15,0 C 92 % 1016,2 hPa 0,0 l/m 0 min 0 min 5 W/m 6,4 km/h (2 Bft) 95,74 %
26.08.2020 20:16 16,1 C 14,4 C 15,0 C 92 % 1016,2 hPa 0,0 l/m 0 min 0 min 4 W/m 9,7 km/h (2 Bft) 93,62 %
26.08.2020 20:18 16,1 C 14,4 C 15,0 C 92 % 1016,2 hPa 0,0 l/m 0 min 0 min 0 W/m 6,4 km/h (2 Bft) 97,83 %
26.08.2020 20:20 16,1 C 14,4 C 15,0 C 92 % 1016,2 hPa 0,0 l/m 0 min 0 min 0 W/m 9,7 km/h (2 Bft) 97,87 %
26.08.2020 20:22 16,1 C 14,4 C 15,0 C 92 % 1016,3 hPa 0,0 l/m 0 min 0 min 0 W/m 6,4 km/h (2 Bft) 97,87 %
26.08.2020 20:24 16,1 C 14,4 C 15,0 C 92 % 1016,3 hPa 0,0 l/m 0 min 0 min 0 W/m 12,9 km/h (3 Bft) 97,87 %
26.08.2020 20:26 16,1 C 14,4 C 15,0 C 92 % 1016,3 hPa 0,0 l/m 0 min 0 min 0 W/m 19,3 km/h (3 Bft) 95,74 %
26.08.2020 20:28 16,1 C 14,4 C 15,0 C 92 % 1016,3 hPa 0,0 l/m 0 min 0 min 0 W/m 12,9 km/h (3 Bft) 97,87 %
26.08.2020 20:30 16,1 C 14,4 C 15,0 C 92 % 1016,4 hPa 0,0 l/m 0 min 0 min 0 W/m 12,9 km/h (3 Bft) 95,65 %
26.08.2020 20:32 16,1 C 14,4 C 15,0 C 92 % 1016,4 hPa 0,0 l/m 0 min 0 min 0 W/m 16,1 km/h (3 Bft) 95,74 %
26.08.2020 20:34 16,1 C 14,4 C 15,0 C 92 % 1016,5 hPa 0,0 l/m 0 min 0 min 0 W/m 9,7 km/h (2 Bft) 97,87 %
26.08.2020 20:36 16,1 C 14,4 C 15,0 C 92 % 1016,4 hPa 0,0 l/m 0 min 0 min 0 W/m 16,1 km/h (3 Bft) 97,87 %
26.08.2020 20:38 16,1 C 14,4 C 15,0 C 92 % 1016,4 hPa 0,0 l/m 0 min 0 min 0 W/m 9,7 km/h (2 Bft) 95,74 %
26.08.2020 20:40 16,1 C 14,4 C 15,0 C 92 % 1016,4 hPa 0,0 l/m 0 min 0 min 0 W/m 12,9 km/h (3 Bft) 97,87 %
26.08.2020 20:42 16,1 C 14,4 C 15,0 C 92 % 1016,4 hPa 0,0 l/m 0 min 0 min 0 W/m 9,7 km/h (2 Bft) 97,83 %
26.08.2020 20:44 16,1 C 14,4 C 15,0 C 92 % 1016,4 hPa 0,0 l/m 0 min 0 min 0 W/m 12,9 km/h (3 Bft) 97,87 %
26.08.2020 20:46 16,1 C 14,4 C 15,0 C 92 % 1016,5 hPa 0,0 l/m 0 min 0 min 0 W/m 16,1 km/h (3 Bft) 97,87 %
26.08.2020 20:48 16,1 C 15,0 C 15,0 C 92 % 1016,6 hPa 0,0 l/m 0 min 0 min 0 W/m 12,9 km/h (3 Bft) 97,83 %
26.08.2020 20:50 16,1 C 15,0 C 15,0 C 92 % 1016,6 hPa 0,0 l/m 0 min 0 min 0 W/m 9,7 km/h (2 Bft) 95,74 %
26.08.2020 20:52 16,1 C 15,0 C 15,0 C 92 % 1016,6 hPa 0,0 l/m 0 min 0 min 0 W/m 12,9 km/h (3 Bft) 97,87 %
26.08.2020 20:54 16,1 C 15,0 C 15,0 C 92 % 1016,6 hPa 0,0 l/m 0 min 0 min 0 W/m 6,4 km/h (2 Bft) 95,74 %
26.08.2020 20:56 16,1 C 15,0 C 15,0 C 92 % 1016,6 hPa 0,0 l/m 0 min 0 min 0 W/m 9,7 km/h (2 Bft) 97,87 %
26.08.2020 20:58 16,1 C 15,0 C 15,0 C 92 % 1016,7 hPa 0,0 l/m 0 min 0 min 0 W/m 9,7 km/h (2 Bft) 97,87 %
26.08.2020 21:00 16,1 C 15,0 C 15,0 C 92 % 1016,7 hPa 0,0 l/m 0 min 0 min 0 W/m 3,2 km/h (1 Bft) 100,00 %
26.08.2020 21:02 16,1 C 15,0 C 15,0 C 92 % 1016,8 hPa 0,0 l/m 0 min 0 min 0 W/m 12,9 km/h (3 Bft) 100,00 %
26.08.2020 21:04 16,1 C 15,0 C 15,0 C 92 % 1016,8 hPa 0,0 l/m 0 min 0 min 0 W/m 3,2 km/h (1 Bft) 100,00 %
26.08.2020 21:06 16,2 C 15,0 C 15,0 C 92 % 1016,8 hPa 0,0 l/m 0 min 0 min 0 W/m 12,9 km/h (3 Bft) 100,00 %
26.08.2020 21:08 16,2 C 15,0 C 15,0 C 92 % 1016,8 hPa 0,0 l/m 0 min 0 min 0 W/m 6,4 km/h (2 Bft) 96,55 %
26.08.2020 21:10 16,2 C 15,0 C 15,0 C 92 % 1016,8 hPa 0,0 l/m 0 min 0 min 0 W/m 9,7 km/h (2 Bft) 100,00 %
26.08.2020 21:12 16,2 C 15,0 C 15,0 C 92 % 1016,8 hPa 0,0 l/m 0 min 0 min 0 W/m 6,4 km/h (2 Bft) 100,00 %
26.08.2020 21:14 16,2 C 15,0 C 15,0 C 91 % 1016,9 hPa 0,0 l/m 0 min 0 min 0 W/m 16,1 km/h (3 Bft) 100,00 %
26.08.2020 21:16 16,2 C 15,0 C 15,0 C 91 % 1016,9 hPa 0,0 l/m 0 min 0 min 0 W/m 0,0 km/h (0 Bft) 100,00 %
26.08.2020 21:18 16,2 C 15,0 C 15,0 C 91 % 1017,0 hPa 0,0 l/m 0 min 0 min 0 W/m 0,0 km/h (0 Bft) 100,00 %
26.08.2020 21:20 16,2 C 15,0 C 15,0 C 91 % 1017,0 hPa 0,0 l/m 0 min 0 min 0 W/m 0,0 km/h (0 Bft) 100,00 %
26.08.2020 21:22 16,2 C 15,0 C 15,0 C 91 % 1017,0 hPa 0,0 l/m 0 min 0 min 0 W/m 6,4 km/h (2 Bft) 100,00 %
26.08.2020 21:24 16,2 C 15,0 C 15,0 C 91 % 1017,0 hPa 0,0 l/m 0 min 0 min 0 W/m 3,2 km/h (1 Bft) 100,00 %
26.08.2020 21:26 16,2 C 15,0 C 15,0 C 91 % 1017,0 hPa 0,0 l/m 0 min 0 min 0 W/m 9,7 km/h (2 Bft) 97,87 %
26.08.2020 21:28 16,2 C 15,0 C 15,0 C 91 % 1017,0 hPa 0,0 l/m 0 min 0 min 0 W/m 3,2 km/h (1 Bft) 100,00 %
26.08.2020 21:30 16,2 C 15,0 C 15,0 C 91 % 1017,0 hPa 0,0 l/m 0 min 0 min 0 W/m 3,2 km/h (1 Bft) 100,00 %
26.08.2020 21:32 16,2 C 15,0 C 15,0 C 91 % 1017,0 hPa 0,0 l/m 0 min 0 min 0 W/m 6,4 km/h (2 Bft) 100,00 %
26.08.2020 21:34 16,2 C 15,6 C 15,0 C 91 % 1017,0 hPa 0,0 l/m 0 min 0 min 0 W/m 6,4 km/h (2 Bft) 95,74 %
26.08.2020 21:36 16,2 C 15,6 C 15,0 C 91 % 1017,1 hPa 0,0 l/m 0 min 0 min 0 W/m 6,4 km/h (2 Bft) 100,00 %
26.08.2020 21:38 16,2 C 15,6 C 15,0 C 91 % 1017,1 hPa 0,0 l/m 0 min 0 min 0 W/m 6,4 km/h (2 Bft) 100,00 %
26.08.2020 21:40 16,2 C 15,6 C 15,0 C 91 % 1017,1 hPa 0,0 l/m 0 min 0 min 0 W/m 6,4 km/h (2 Bft) 100,00 %
26.08.2020 21:42 16,2 C 15,6 C 15,0 C 91 % 1017,1 hPa 0,0 l/m 0 min 0 min 0 W/m 3,2 km/h (1 Bft) 100,00 %
26.08.2020 21:44 16,2 C 15,6 C 15,0 C 91 % 1017,1 hPa 0,0 l/m 0 min 0 min 0 W/m 3,2 km/h (1 Bft) 100,00 %
26.08.2020 21:46 16,2 C 15,6 C 15,0 C 91 % 1017,1 hPa 0,0 l/m 0 min 0 min 0 W/m 6,4 km/h (2 Bft) 97,87 %
26.08.2020 21:48 16,2 C 15,6 C 15,0 C 91 % 1017,1 hPa 0,0 l/m 0 min 0 min 0 W/m 12,9 km/h (3 Bft) 100,00 %
26.08.2020 21:50 16,2 C 15,6 C 15,0 C 91 % 1017,1 hPa 0,0 l/m 0 min 0 min 0 W/m 0,0 km/h (0 Bft) 100,00 %
26.08.2020 21:52 16,2 C 15,6 C 15,0 C 91 % 1017,2 hPa 0,0 l/m 0 min 0 min 0 W/m 3,2 km/h (1 Bft) 97,83 %
26.08.2020 21:54 16,2 C 15,6 C 15,0 C 91 % 1017,3 hPa 0,0 l/m 0 min 0 min 0 W/m 12,9 km/h (3 Bft) 100,00 %
26.08.2020 21:56 16,2 C 15,6 C 15,0 C 91 % 1017,3 hPa 0,0 l/m 0 min 0 min 0 W/m 6,4 km/h (2 Bft) 100,00 %
26.08.2020 21:58 16,2 C 15,6 C 15,0 C 91 % 1017,3 hPa 0,0 l/m 0 min 0 min 0 W/m 3,2 km/h (1 Bft) 100,00 %
26.08.2020 22:00 16,2 C 15,6 C 15,0 C 91 % 1017,3 hPa 0,0 l/m 0 min 0 min 0 W/m 12,9 km/h (3 Bft) 97,87 %
26.08.2020 22:02 16,2 C 15,6 C 15,0 C 91 % 1017,3 hPa 0,0 l/m 0 min 0 min 0 W/m 6,4 km/h (2 Bft) 100,00 %
26.08.2020 22:04 16,2 C 15,6 C 15,0 C 91 % 1017,3 hPa 0,0 l/m 0 min 0 min 0 W/m 6,4 km/h (2 Bft) 97,87 %
26.08.2020 22:06 16,2 C 15,6 C 15,0 C 91 % 1017,3 hPa 0,0 l/m 0 min 0 min 0 W/m 3,2 km/h (1 Bft) 100,00 %
26.08.2020 22:08 16,2 C 15,0 C 15,0 C 91 % 1017,3 hPa 0,0 l/m 0 min 0 min 0 W/m 6,4 km/h (2 Bft) 100,00 %
26.08.2020 22:10 16,2 C 15,0 C 15,0 C 91 % 1017,3 hPa 0,0 l/m 0 min 0 min 0 W/m 9,7 km/h (2 Bft) 100,00 %
26.08.2020 22:12 16,2 C 15,0 C 15,0 C 91 % 1017,4 hPa 0,0 l/m 0 min 0 min 0 W/m 6,4 km/h (2 Bft) 97,87 %
26.08.2020 22:14 16,2 C 15,0 C 15,0 C 91 % 1017,4 hPa 0,0 l/m 0 min 0 min 0 W/m 6,4 km/h (2 Bft) 93,62 %
26.08.2020 22:16 16,2 C 15,0 C 15,0 C 91 % 1017,4 hPa 0,0 l/m 0 min 0 min 0 W/m 6,4 km/h (2 Bft) 93,48 %
26.08.2020 22:18 16,2 C 15,0 C 15,0 C 91 % 1017,4 hPa 0,0 l/m 0 min 0 min 0 W/m 3,2 km/h (1 Bft) 95,74 %
26.08.2020 22:20 16,2 C 15,0 C 15,0 C 90 % 1017,5 hPa 0,0 l/m 0 min 0 min 0 W/m 6,4 km/h (2 Bft) 93,62 %
26.08.2020 22:22 16,2 C 15,0 C 15,0 C 90 % 1017,4 hPa 0,0 l/m 0 min 0 min 0 W/m 6,4 km/h (2 Bft) 93,62 %
26.08.2020 22:24 16,2 C 15,0 C 15,0 C 90 % 1017,4 hPa 0,0 l/m 0 min 0 min 0 W/m 6,4 km/h (2 Bft) 97,87 %
26.08.2020 22:26 16,2 C 15,0 C 15,0 C 90 % 1017,5 hPa 0,0 l/m 0 min 0 min 0 W/m 6,4 km/h (2 Bft) 95,65 %
26.08.2020 22:28 16,2 C 15,0 C 15,0 C 90 % 1017,5 hPa 0,0 l/m 0 min 0 min 0 W/m 6,4 km/h (2 Bft) 95,74 %
26.08.2020 22:30 16,2 C 15,0 C 15,0 C 91 % 1017,5 hPa 0,0 l/m 0 min 0 min 0 W/m 6,4 km/h (2 Bft) 95,74 %
26.08.2020 22:32 16,2 C 15,0 C 15,0 C 91 % 1017,5 hPa 0,0 l/m 0 min 0 min 0 W/m 9,7 km/h (2 Bft) 95,74 %
26.08.2020 22:34 16,2 C 15,0 C 15,0 C 91 % 1017,5 hPa 0,0 l/m 0 min 0 min 0 W/m 6,4 km/h (2 Bft) 93,62 %
26.08.2020 22:36 16,2 C 15,0 C 15,0 C 91 % 1017,5 hPa 0,0 l/m 0 min 0 min 0 W/m 6,4 km/h (2 Bft) 93,62 %
26.08.2020 22:38 16,2 C 15,0 C 15,0 C 91 % 1017,5 hPa 0,0 l/m 0 min 0 min 0 W/m 6,4 km/h (2 Bft) 95,65 %
26.08.2020 22:40 16,2 C 15,0 C 15,0 C 91 % 1017,6 hPa 0,0 l/m 0 min 0 min 0 W/m 6,4 km/h (2 Bft) 95,74 %
26.08.2020 22:42 16,1 C 15,0 C 15,0 C 91 % 1017,6 hPa 0,0 l/m 0 min 0 min 0 W/m 9,7 km/h (2 Bft) 96,08 %
26.08.2020 22:44 16,1 C 15,0 C 15,0 C 91 % 1017,6 hPa 0,0 l/m 0 min 0 min 0 W/m 6,4 km/h (2 Bft) 95,65 %
26.08.2020 22:46 16,1 C 15,0 C 15,0 C 91 % 1017,7 hPa 0,0 l/m 0 min 0 min 0 W/m 0,0 km/h (0 Bft) 95,74 %
26.08.2020 22:48 16,1 C 15,0 C 15,0 C 91 % 1017,7 hPa 0,0 l/m 0 min 0 min 0 W/m 0,0 km/h (0 Bft) 93,62 %
26.08.2020 22:50 16,1 C 15,0 C 15,0 C 91 % 1017,8 hPa 0,0 l/m 0 min 0 min 0 W/m 3,2 km/h (1 Bft) 93,48 %
26.08.2020 22:52 16,1 C 15,0 C 15,0 C 91 % 1017,8 hPa 0,0 l/m 0 min 0 min 0 W/m 9,7 km/h (2 Bft) 95,74 %
26.08.2020 22:54 16,1 C 15,0 C 14,4 C 91 % 1017,8 hPa 0,0 l/m 0 min 0 min 0 W/m 0,0 km/h (0 Bft) 95,74 %
26.08.2020 22:56 16,1 C 15,0 C 15,0 C 91 % 1017,8 hPa 0,0 l/m 0 min 0 min 0 W/m 3,2 km/h (1 Bft) 95,74 %
26.08.2020 22:58 16,1 C 15,0 C 14,4 C 91 % 1017,8 hPa 0,0 l/m 0 min 0 min 0 W/m 0,0 km/h (0 Bft) 91,49 %
26.08.2020 23:00 16,1 C 15,0 C 14,4 C 91 % 1017,8 hPa 0,0 l/m 0 min 0 min 0 W/m 0,0 km/h (0 Bft) 93,48 %
26.08.2020 23:02 16,1 C 15,0 C 14,4 C 91 % 1017,8 hPa 0,0 l/m 0 min 0 min 0 W/m 3,2 km/h (1 Bft) 93,62 %
26.08.2020 23:04 16,1 C 14,4 C 14,4 C 91 % 1017,9 hPa 0,0 l/m 0 min 0 min 0 W/m 0,0 km/h (0 Bft) 95,74 %
26.08.2020 23:06 16,0 C 14,4 C 14,4 C 91 % 1017,9 hPa 0,0 l/m 0 min 0 min 0 W/m 3,2 km/h (1 Bft) 95,74 %
26.08.2020 23:08 16,0 C 14,4 C 14,4 C 91 % 1017,9 hPa 0,0 l/m 0 min 0 min 0 W/m 0,0 km/h (0 Bft) 93,62 %
26.08.2020 23:10 16,0 C 14,4 C 14,4 C 91 % 1017,9 hPa 0,0 l/m 0 min 0 min 0 W/m 0,0 km/h (0 Bft) 95,74 %
26.08.2020 23:12 15,9 C 14,4 C 14,4 C 91 % 1017,8 hPa 0,0 l/m 0 min 0 min 0 W/m 6,4 km/h (2 Bft) 97,83 %
26.08.2020 23:14 15,9 C 14,4 C 13,9 C 91 % 1017,8 hPa 0,0 l/m 0 min 0 min 0 W/m 0,0 km/h (0 Bft) 97,87 %
26.08.2020 23:16 15,9 C 14,4 C 13,9 C 91 % 1017,8 hPa 0,0 l/m 0 min 0 min 0 W/m 0,0 km/h (0 Bft) 97,87 %
26.08.2020 23:18 15,9 C 14,4 C 13,9 C 91 % 1017,8 hPa 0,0 l/m 0 min 0 min 0 W/m 3,2 km/h (1 Bft) 97,87 %
26.08.2020 23:20 15,9 C 14,4 C 13,9 C 91 % 1017,8 hPa 0,0 l/m 0 min 0 min 0 W/m 0,0 km/h (0 Bft) 97,87 %
26.08.2020 23:22 15,8 C 14,4 C 13,9 C 91 % 1017,9 hPa 0,0 l/m 0 min 0 min 0 W/m 9,7 km/h (2 Bft) 95,74 %
26.08.2020 23:24 15,8 C 14,4 C 13,9 C 91 % 1017,9 hPa 0,0 l/m 0 min 0 min 0 W/m 6,4 km/h (2 Bft) 97,83 %
26.08.2020 23:26 15,8 C 14,4 C 13,9 C 91 % 1017,9 hPa 0,0 l/m 0 min 0 min 0 W/m 0,0 km/h (0 Bft) 95,74 %
26.08.2020 23:28 15,8 C 14,4 C 13,9 C 91 % 1017,9 hPa 0,0 l/m 0 min 0 min 0 W/m 0,0 km/h (0 Bft) 97,87 %
26.08.2020 23:30 15,8 C 14,4 C 13,9 C 91 % 1018,0 hPa 0,0 l/m 0 min 0 min 0 W/m 3,2 km/h (1 Bft) 97,87 %
26.08.2020 23:32 15,7 C 14,4 C 13,9 C 91 % 1018,0 hPa 0,0 l/m 0 min 0 min 0 W/m 0,0 km/h (0 Bft) 95,74 %
26.08.2020 23:34 15,7 C 14,4 C 13,9 C 91 % 1018,0 hPa 0,0 l/m 0 min 0 min 0 W/m 0,0 km/h (0 Bft) 95,65 %
26.08.2020 23:36 15,7 C 14,4 C 13,9 C 91 % 1018,0 hPa 0,0 l/m 0 min 0 min 0 W/m 0,0 km/h (0 Bft) 97,87 %
26.08.2020 23:38 15,7 C 14,4 C 13,9 C 91 % 1018,1 hPa 0,0 l/m 0 min 0 min 0 W/m 0,0 km/h (0 Bft) 95,74 %
26.08.2020 23:40 15,7 C 14,4 C 13,9 C 91 % 1018,0 hPa 0,0 l/m 0 min 0 min 0 W/m 0,0 km/h (0 Bft) 97,87 %
26.08.2020 23:42 15,7 C 14,4 C 13,9 C 91 % 1018,1 hPa 0,0 l/m 0 min 0 min 0 W/m 0,0 km/h (0 Bft) 95,74 %
26.08.2020 23:44 15,6 C 14,4 C 13,9 C 91 % 1018,0 hPa 0,0 l/m 0 min 0 min 0 W/m 3,2 km/h (1 Bft) 97,87 %
26.08.2020 23:46 15,6 C 13,9 C 13,9 C 92 % 1018,0 hPa 0,0 l/m 0 min 0 min 0 W/m 6,4 km/h (2 Bft) 100,00 %
26.08.2020 23:48 15,6 C 13,9 C 13,9 C 92 % 1018,0 hPa 0,0 l/m 0 min 0 min 0 W/m 0,0 km/h (0 Bft) 100,00 %
26.08.2020 23:50 15,6 C 13,9 C 13,9 C 91 % 1018,1 hPa 0,0 l/m 0 min 0 min 0 W/m 0,0 km/h (0 Bft) 97,87 %
26.08.2020 23:52 15,6 C 13,9 C 13,9 C 92 % 1018,1 hPa 0,0 l/m 0 min 0 min 0 W/m 0,0 km/h (0 Bft) 100,00 %
26.08.2020 23:54 15,5 C 13,9 C 13,9 C 92 % 1018,1 hPa 0,0 l/m 0 min 0 min 0 W/m 0,0 km/h (0 Bft) 100,00 %
26.08.2020 23:56 15,5 C 13,9 C 13,9 C 92 % 1018,1 hPa 0,0 l/m 0 min 0 min 0 W/m 0,0 km/h (0 Bft) 97,87 %
26.08.2020 23:58 15,4 C 13,9 C 13,9 C 92 % 1018,1 hPa 0,0 l/m 0 min 0 min 0 W/m 0,0 km/h (0 Bft) 97,83 %
_ Min-Zeit 23:58 19:36 23:14 14:14 03:42 - - - - 21:16 06:24
Minimum _ 15,4 C 13,9 C 13,9 C 72 % 1002,8 hPa - - - - 0,0 km/h (0 Bft) 69,05 %
_ Max-Zeit 12:52 12:50 12:46 20:04 23:38 19:52 09:52 07:22 12:52 10:26 00:00
Maximum _ 20,7 C 25,6 C 20,6 C 92 % 1018,1 hPa 0,2 l/m 2 min 2 min 746 W/m 61,2 km/h
S-SO (7 Bft)
100,00 %
Durchschnitt _ 18,0 C 17,4 C 16,9 C 80 % 1009,1 hPa #0,2 l/m #1:14 h #40 min. 146 W/m 23,1 km/h (4 Bft) 97,44 %
© 2020 W. Hausmann